Time,TemperatureF,DewpointF,PressureIn,WindDirection,WindDirectionDegrees,WindSpeedMPH,WindSpeedGustMPH,Humidity,HourlyPrecipIn,Conditions,Clouds,dailyrainin,SoftwareType,DateUTC
2013-02-13 00:00:00,34.3,24.5,29.88,SW,234,4.0,7.0,67,0.00,,,0.00,VWS V14.01,2013-02-13 05:00:00,
2013-02-13 00:03:00,34.3,24.5,29.90,SW,235,2.0,7.0,67,0.00,,,0.00,VWS V14.01,2013-02-13 05:03:00,
2013-02-13 00:04:00,34.3,24.5,29.90,SW,235,2.0,5.0,67,0.00,,,0.00,VWS V14.01,2013-02-13 05:04:00,
2013-02-13 00:07:00,34.3,24.5,29.90,SW,235,3.0,5.0,67,0.00,,,0.00,VWS V14.01,2013-02-13 05:07:00,
2013-02-13 00:09:00,34.3,24.5,29.90,SW,235,0.0,5.0,67,0.00,,,0.00,VWS V14.01,2013-02-13 05:09:00,
2013-02-13 00:12:00,34.3,24.5,29.90,SW,235,2.0,6.0,67,0.00,,,0.00,VWS V14.01,2013-02-13 05:12:00,
2013-02-13 00:13:00,34.3,24.5,29.90,SW,235,0.0,6.0,67,0.00,,,0.00,VWS V14.01,2013-02-13 05:13:00,
2013-02-13 00:16:00,34.3,24.9,29.90,SW,235,3.0,6.0,68,0.00,,,0.00,VWS V14.01,2013-02-13 05:16:00,
2013-02-13 00:20:00,34.3,24.9,29.89,SW,236,5.0,7.0,68,0.00,,,0.00,VWS V14.01,2013-02-13 05:20:00,
2013-02-13 00:22:00,34.3,24.9,29.89,SW,236,0.0,7.0,68,0.00,,,0.00,VWS V14.01,2013-02-13 05:22:00,
2013-02-13 00:25:00,34.3,24.9,29.89,SW,236,0.0,7.0,68,0.00,,,0.00,VWS V14.01,2013-02-13 05:25:00,
2013-02-13 00:27:00,34.1,24.7,29.89,SW,236,0.0,7.0,68,0.00,,,0.00,VWS V14.01,2013-02-13 05:27:00,
2013-02-13 00:29:00,34.1,24.3,29.89,WSW,237,0.0,7.0,67,0.00,,,0.00,VWS V14.01,2013-02-13 05:29:00,
2013-02-13 00:31:00,34.1,24.3,29.89,WSW,237,0.0,7.0,67,0.00,,,0.00,VWS V14.01,2013-02-13 05:31:00,
2013-02-13 00:34:00,34.1,24.3,29.89,WSW,238,4.0,6.0,67,0.00,,,0.00,VWS V14.01,2013-02-13 05:34:00,
2013-02-13 00:36:00,34.1,24.3,29.89,WSW,239,0.0,7.0,67,0.00,,,0.00,VWS V14.01,2013-02-13 05:36:00,
2013-02-13 00:40:00,34.1,24.3,29.89,WSW,239,0.0,7.0,67,0.00,,,0.00,VWS V14.01,2013-02-13 05:40:00,
2013-02-13 00:42:00,34.1,24.3,29.89,WSW,239,1.0,7.0,67,0.00,,,0.00,VWS V14.01,2013-02-13 05:42:00,
2013-02-13 00:45:00,34.1,24.3,29.89,WSW,239,0.0,7.0,67,0.00,,,0.00,VWS V14.01,2013-02-13 05:45:00,
2013-02-13 00:47:00,34.1,24.3,29.89,WSW,239,0.0,7.0,67,0.00,,,0.00,VWS V14.01,2013-02-13 05:47:00,
2013-02-13 00:48:00,34.1,24.3,29.89,WSW,239,4.0,7.0,67,0.00,,,0.00,VWS V14.01,2013-02-13 05:48:00,
2013-02-13 00:51:00,34.1,24.3,29.89,WSW,240,4.0,7.0,67,0.00,,,0.00,VWS V14.01,2013-02-13 05:51:00,
2013-02-13 00:52:00,34.0,24.2,29.89,WSW,240,0.0,7.0,67,0.00,,,0.00,VWS V14.01,2013-02-13 05:52:00,
2013-02-13 00:53:00,34.0,24.2,29.89,WSW,240,0.0,7.0,67,0.00,,,0.00,VWS V14.01,2013-02-13 05:53:00,
2013-02-13 00:54:00,34.0,24.2,29.89,WSW,240,0.0,7.0,67,0.00,,,0.00,VWS V14.01,2013-02-13 05:54:00,
2013-02-13 00:57:00,34.0,24.2,29.89,WSW,240,0.0,7.0,67,0.00,,,0.00,VWS V14.01,2013-02-13 05:57:00,
2013-02-13 00:59:00,33.8,24.0,29.89,WSW,240,0.0,7.0,67,0.00,,,0.00,VWS V14.01,2013-02-13 05:59:00,
2013-02-13 01:02:00,33.8,24.0,29.89,WSW,240,1.0,7.0,67,0.00,,,0.00,VWS V14.01,2013-02-13 06:02:00,
2013-02-13 01:03:00,33.8,24.0,29.88,WSW,240,1.0,7.0,67,0.00,,,0.00,VWS V14.01,2013-02-13 06:03:00,
2013-02-13 01:04:00,33.8,24.0,29.88,WSW,240,0.0,1.0,67,0.00,,,0.00,VWS V14.01,2013-02-13 06:04:00,
2013-02-13 01:05:00,33.8,24.0,29.88,WSW,240,0.0,1.0,67,0.00,,,0.00,VWS V14.01,2013-02-13 06:05:00,
2013-02-13 01:08:00,33.8,24.0,29.88,WSW,240,3.0,4.0,67,0.00,,,0.00,VWS V14.01,2013-02-13 06:08:00,
2013-02-13 01:10:00,33.7,23.9,29.88,WSW,240,0.0,4.0,67,0.00,,,0.00,VWS V14.01,2013-02-13 06:10:00,
2013-02-13 01:11:00,33.7,23.9,29.88,WSW,240,2.0,4.0,67,0.00,,,0.00,VWS V14.01,2013-02-13 06:11:00,
2013-02-13 01:14:00,33.7,23.9,29.88,WSW,240,0.0,4.0,67,0.00,,,0.00,VWS V14.01,2013-02-13 06:14:00,
2013-02-13 01:16:00,33.7,24.3,29.88,WSW,240,0.0,4.0,68,0.00,,,0.00,VWS V14.01,2013-02-13 06:16:00,
2013-02-13 01:17:00,33.7,24.3,29.88,WSW,240,0.0,4.0,68,0.00,,,0.00,VWS V14.01,2013-02-13 06:17:00,
2013-02-13 01:22:00,33.5,24.1,29.89,WSW,240,2.0,6.0,68,0.00,,,0.00,VWS V14.01,2013-02-13 06:22:00,
2013-02-13 01:23:00,33.5,24.1,29.89,WSW,240,0.0,6.0,68,0.00,,,0.00,VWS V14.01,2013-02-13 06:23:00,
2013-02-13 01:24:00,33.5,24.1,29.89,WSW,240,0.0,6.0,68,0.00,,,0.00,VWS V14.01,2013-02-13 06:24:00,
2013-02-13 01:26:00,33.4,24.0,29.89,WSW,240,1.0,6.0,68,0.00,,,0.00,VWS V14.01,2013-02-13 06:26:00,
2013-02-13 01:29:00,33.4,24.0,29.89,WSW,240,3.0,6.0,68,0.00,,,0.00,VWS V14.01,2013-02-13 06:29:00,
2013-02-13 01:31:00,33.4,24.0,29.89,WSW,240,0.0,6.0,68,0.00,,,0.00,VWS V14.01,2013-02-13 06:31:00,
2013-02-13 01:33:00,33.2,23.8,29.90,WSW,240,0.0,6.0,68,0.00,,,0.00,VWS V14.01,2013-02-13 06:33:00,
2013-02-13 01:35:00,33.2,23.8,29.90,WSW,240,0.0,1.0,68,0.00,,,0.00,VWS V14.01,2013-02-13 06:35:00,
2013-02-13 01:36:00,33.2,23.8,29.90,WSW,240,0.0,3.0,68,0.00,,,0.00,VWS V14.01,2013-02-13 06:36:00,
2013-02-13 01:39:00,33.1,23.7,29.90,WSW,240,0.0,5.0,68,0.00,,,0.00,VWS V14.01,2013-02-13 06:39:00,
2013-02-13 01:41:00,33.1,23.7,29.90,WSW,240,0.0,5.0,68,0.00,,,0.00,VWS V14.01,2013-02-13 06:41:00,
2013-02-13 01:43:00,33.1,23.7,29.90,WSW,240,0.0,5.0,68,0.00,,,0.00,VWS V14.01,2013-02-13 06:43:00,
2013-02-13 01:44:00,33.1,23.7,29.90,WSW,240,0.0,5.0,68,0.00,,,0.00,VWS V14.01,2013-02-13 06:44:00,
2013-02-13 01:47:00,33.1,24.0,29.90,WSW,240,3.0,5.0,69,0.00,,,0.00,VWS V14.01,2013-02-13 06:47:00,
2013-02-13 01:48:00,32.9,23.9,29.90,WSW,240,0.0,5.0,69,0.00,,,0.00,VWS V14.01,2013-02-13 06:48:00,
2013-02-13 01:53:00,32.9,23.9,29.90,WSW,240,4.0,6.0,69,0.00,,,0.00,VWS V14.01,2013-02-13 06:53:00,
2013-02-13 01:55:00,32.8,23.8,29.90,WSW,240,4.0,6.0,69,0.00,,,0.00,VWS V14.01,2013-02-13 06:55:00,
2013-02-13 01:59:00,32.7,23.7,29.90,WSW,240,2.0,6.0,69,0.00,,,0.00,VWS V14.01,2013-02-13 06:59:00,
2013-02-13 02:00:00,32.7,24.0,29.90,WSW,240,4.0,6.0,70,0.00,,,0.00,VWS V14.01,2013-02-13 07:00:00,
2013-02-13 02:02:00,32.7,24.0,29.90,WSW,240,3.0,6.0,70,0.00,,,0.00,VWS V14.01,2013-02-13 07:02:00,
2013-02-13 02:05:00,32.5,23.8,29.90,WSW,240,0.0,5.0,70,0.00,,,0.00,VWS V14.01,2013-02-13 07:05:00,
2013-02-13 02:07:00,32.5,23.8,29.90,WSW,240,2.0,5.0,70,0.00,,,0.00,VWS V14.01,2013-02-13 07:07:00,
2013-02-13 02:10:00,32.5,23.8,29.90,WSW,240,0.0,5.0,70,0.00,,,0.00,VWS V14.01,2013-02-13 07:10:00,
2013-02-13 02:11:00,32.5,23.8,29.90,WSW,240,0.0,5.0,70,0.00,,,0.00,VWS V14.01,2013-02-13 07:11:00,
2013-02-13 02:12:00,32.4,23.7,29.90,WSW,240,0.0,5.0,70,0.00,,,0.00,VWS V14.01,2013-02-13 07:12:00,
2013-02-13 02:16:00,32.4,23.7,29.90,WSW,240,0.0,5.0,70,0.00,,,0.00,VWS V14.01,2013-02-13 07:16:00,
2013-02-13 02:17:00,32.4,23.7,29.90,WSW,240,0.0,5.0,70,0.00,,,0.00,VWS V14.01,2013-02-13 07:17:00,
2013-02-13 02:18:00,32.4,23.7,29.90,WSW,240,0.0,5.0,70,0.00,,,0.00,VWS V14.01,2013-02-13 07:18:00,
2013-02-13 02:22:00,32.2,23.5,29.90,WSW,240,0.0,5.0,70,0.00,,,0.00,VWS V14.01,2013-02-13 07:22:00,
2013-02-13 02:24:00,32.2,23.5,29.90,WSW,240,0.0,5.0,70,0.00,,,0.00,VWS V14.01,2013-02-13 07:24:00,
2013-02-13 02:26:00,32.2,23.5,29.90,WSW,240,0.0,5.0,70,0.00,,,0.00,VWS V14.01,2013-02-13 07:26:00,
2013-02-13 02:29:00,32.2,23.9,29.90,WSW,240,0.0,5.0,71,0.00,,,0.00,VWS V14.01,2013-02-13 07:29:00,
2013-02-13 02:32:00,32.2,23.9,29.90,WSW,240,0.0,5.0,71,0.00,,,0.00,VWS V14.01,2013-02-13 07:32:00,
2013-02-13 02:33:00,32.1,23.8,29.89,WSW,240,0.0,5.0,71,0.00,,,0.00,VWS V14.01,2013-02-13 07:33:00,
2013-02-13 02:35:00,32.1,23.8,29.89,WSW,240,0.0,0.0,71,0.00,,,0.00,VWS V14.01,2013-02-13 07:35:00,
2013-02-13 02:39:00,32.1,23.8,29.89,WSW,240,0.0,0.0,71,0.00,,,0.00,VWS V14.01,2013-02-13 07:39:00,
2013-02-13 02:42:00,31.9,23.6,29.89,WSW,240,0.0,0.0,71,0.00,,,0.00,VWS V14.01,2013-02-13 07:42:00,
2013-02-13 02:43:00,31.9,23.6,29.89,WSW,240,0.0,4.0,71,0.00,,,0.00,VWS V14.01,2013-02-13 07:43:00,
2013-02-13 02:44:00,31.9,23.6,29.89,WSW,240,2.0,5.0,71,0.00,,,0.00,VWS V14.01,2013-02-13 07:44:00,
2013-02-13 02:45:00,31.9,23.6,29.89,WSW,240,0.0,5.0,71,0.00,,,0.00,VWS V14.01,2013-02-13 07:45:00,
2013-02-13 02:47:00,31.9,23.6,29.89,WSW,240,2.0,5.0,71,0.00,,,0.00,VWS V14.01,2013-02-13 07:47:00,
2013-02-13 02:49:00,31.9,23.6,29.88,WSW,240,1.0,5.0,71,0.00,,,0.00,VWS V14.01,2013-02-13 07:49:00,
2013-02-13 02:51:00,31.8,23.5,29.88,WSW,240,0.0,6.0,71,0.00,,,0.00,VWS V14.01,2013-02-13 07:51:00,
2013-02-13 02:52:00,31.8,23.5,29.88,WSW,240,0.0,6.0,71,0.00,,,0.00,VWS V14.01,2013-02-13 07:52:00,
2013-02-13 02:57:00,31.6,23.3,29.88,WSW,240,0.0,6.0,71,0.00,,,0.00,VWS V14.01,2013-02-13 07:57:00,
2013-02-13 02:58:00,31.6,23.3,29.88,WSW,240,0.0,6.0,71,0.00,,,0.00,VWS V14.01,2013-02-13 07:58:00,
2013-02-13 02:59:00,31.5,23.2,29.88,WSW,240,0.0,6.0,71,0.00,,,0.00,VWS V14.01,2013-02-13 07:59:00,
2013-02-13 03:03:00,31.6,23.6,29.87,WSW,240,2.0,6.0,72,0.00,,,0.00,VWS V14.01,2013-02-13 08:03:00,
2013-02-13 03:04:00,31.6,23.6,29.87,WSW,240,0.0,0.0,72,0.00,,,0.00,VWS V14.01,2013-02-13 08:04:00,
2013-02-13 03:08:00,31.6,23.6,29.87,WSW,240,0.0,0.0,72,0.00,,,0.00,VWS V14.01,2013-02-13 08:08:00,
2013-02-13 03:10:00,31.6,23.6,29.87,WSW,240,0.0,0.0,72,0.00,,,0.00,VWS V14.01,2013-02-13 08:10:00,
2013-02-13 03:11:00,31.6,23.6,29.87,WSW,240,0.0,0.0,72,0.00,,,0.00,VWS V14.01,2013-02-13 08:11:00,
2013-02-13 03:15:00,31.6,23.6,29.87,WSW,240,0.0,0.0,72,0.00,,,0.00,VWS V14.01,2013-02-13 08:15:00,
2013-02-13 03:18:00,31.6,23.6,29.87,WSW,240,0.0,0.0,72,0.00,,,0.00,VWS V14.01,2013-02-13 08:18:00,
2013-02-13 03:20:00,31.6,23.6,29.87,WSW,240,0.0,0.0,72,0.00,,,0.00,VWS V14.01,2013-02-13 08:20:00,
2013-02-13 03:21:00,31.6,23.6,29.87,WSW,240,0.0,0.0,72,0.00,,,0.00,VWS V14.01,2013-02-13 08:21:00,
2013-02-13 03:24:00,31.6,23.3,29.87,WSW,240,0.0,0.0,71,0.00,,,0.00,VWS V14.01,2013-02-13 08:24:00,
2013-02-13 03:28:00,31.5,23.5,29.87,WSW,240,0.0,0.0,72,0.00,,,0.00,VWS V14.01,2013-02-13 08:28:00,
2013-02-13 03:29:00,31.5,23.5,29.87,WSW,240,0.0,0.0,72,0.00,,,0.00,VWS V14.01,2013-02-13 08:29:00,
2013-02-13 03:33:00,31.5,23.2,29.86,WSW,240,0.0,0.0,71,0.00,,,0.00,VWS V14.01,2013-02-13 08:33:00,
2013-02-13 03:36:00,31.3,23.3,29.86,WSW,240,0.0,5.0,72,0.00,,,0.00,VWS V14.01,2013-02-13 08:36:00,
2013-02-13 03:40:00,31.3,23.3,29.86,WSW,240,0.0,5.0,72,0.00,,,0.00,VWS V14.01,2013-02-13 08:40:00,
2013-02-13 03:42:00,31.3,23.3,29.86,WSW,240,0.0,5.0,72,0.00,,,0.00,VWS V14.01,2013-02-13 08:42:00,
2013-02-13 03:43:00,31.3,23.3,29.86,WSW,240,0.0,5.0,72,0.00,,,0.00,VWS V14.01,2013-02-13 08:43:00,
2013-02-13 03:47:00,31.2,23.2,29.85,WSW,240,0.0,5.0,72,0.00,,,0.00,VWS V14.01,2013-02-13 08:47:00,
2013-02-13 03:48:00,31.2,23.2,29.85,WSW,240,0.0,5.0,72,0.00,,,0.00,VWS V14.01,2013-02-13 08:48:00,
2013-02-13 03:50:00,31.2,23.2,29.85,WSW,240,0.0,5.0,72,0.00,,,0.00,VWS V14.01,2013-02-13 08:50:00,
2013-02-13 03:52:00,31.0,23.0,29.85,WSW,240,0.0,5.0,72,0.00,,,0.00,VWS V14.01,2013-02-13 08:52:00,
2013-02-13 03:54:00,31.0,23.0,29.85,WSW,240,0.0,5.0,72,0.00,,,0.00,VWS V14.01,2013-02-13 08:54:00,
2013-02-13 03:55:00,30.9,23.0,29.85,WSW,240,0.0,5.0,72,0.00,,,0.00,VWS V14.01,2013-02-13 08:55:00,
2013-02-13 03:57:00,30.9,23.0,29.85,WSW,240,0.0,5.0,72,0.00,,,0.00,VWS V14.01,2013-02-13 08:57:00,
2013-02-13 03:58:00,30.9,23.0,29.85,WSW,240,0.0,5.0,72,0.00,,,0.00,VWS V14.01,2013-02-13 08:58:00,
2013-02-13 04:00:00,30.7,22.8,29.85,WSW,240,0.0,5.0,72,0.00,,,0.00,VWS V14.01,2013-02-13 09:00:00,
2013-02-13 04:02:00,30.7,22.8,29.84,WSW,240,0.0,5.0,72,0.00,,,0.00,VWS V14.01,2013-02-13 09:02:00,
2013-02-13 04:04:00,30.7,22.8,29.84,WSW,240,1.0,1.0,72,0.00,,,0.00,VWS V14.01,2013-02-13 09:04:00,
2013-02-13 04:06:00,30.6,22.7,29.84,WSW,240,0.0,1.0,72,0.00,,,0.00,VWS V14.01,2013-02-13 09:06:00,
2013-02-13 04:07:00,30.6,22.7,29.84,WSW,240,0.0,1.0,72,0.00,,,0.00,VWS V14.01,2013-02-13 09:07:00,
2013-02-13 04:09:00,30.6,22.7,29.84,WSW,240,0.0,1.0,72,0.00,,,0.00,VWS V14.01,2013-02-13 09:09:00,
2013-02-13 04:11:00,30.6,22.7,29.84,WSW,240,0.0,1.0,72,0.00,,,0.00,VWS V14.01,2013-02-13 09:11:00,
2013-02-13 04:14:00,30.6,22.7,29.84,WSW,240,0.0,1.0,72,0.00,,,0.00,VWS V14.01,2013-02-13 09:14:00,
2013-02-13 04:16:00,30.6,22.7,29.84,WSW,240,0.0,1.0,72,0.00,,,0.00,VWS V14.01,2013-02-13 09:16:00,
2013-02-13 04:17:00,30.6,22.7,29.85,WSW,240,0.0,1.0,72,0.00,,,0.00,VWS V14.01,2013-02-13 09:17:00,
2013-02-13 04:18:00,30.6,22.7,29.85,WSW,240,0.0,1.0,72,0.00,,,0.00,VWS V14.01,2013-02-13 09:18:00,
2013-02-13 04:19:00,30.6,22.7,29.85,WSW,240,0.0,1.0,72,0.00,,,0.00,VWS V14.01,2013-02-13 09:19:00,
2013-02-13 04:22:00,30.6,22.7,29.85,WSW,240,0.0,1.0,72,0.00,,,0.00,VWS V14.01,2013-02-13 09:22:00,
2013-02-13 04:23:00,30.6,22.7,29.85,WSW,240,0.0,1.0,72,0.00,,,0.00,VWS V14.01,2013-02-13 09:23:00,
2013-02-13 04:25:00,30.4,22.5,29.85,WSW,240,0.0,1.0,72,0.00,,,0.00,VWS V14.01,2013-02-13 09:25:00,
2013-02-13 04:27:00,30.4,22.5,29.85,WSW,240,0.0,1.0,72,0.00,,,0.00,VWS V14.01,2013-02-13 09:27:00,
2013-02-13 04:28:00,30.4,22.5,29.85,WSW,240,0.0,1.0,72,0.00,,,0.00,VWS V14.01,2013-02-13 09:28:00,
2013-02-13 04:30:00,30.4,22.5,29.85,WSW,240,0.0,1.0,72,0.00,,,0.00,VWS V14.01,2013-02-13 09:30:00,
2013-02-13 04:35:00,30.3,22.4,29.85,WSW,240,0.0,0.0,72,0.00,,,0.00,VWS V14.01,2013-02-13 09:35:00,
2013-02-13 04:36:00,30.3,22.4,29.85,WSW,240,0.0,0.0,72,0.00,,,0.00,VWS V14.01,2013-02-13 09:36:00,
2013-02-13 04:37:00,30.3,22.4,29.85,WSW,240,0.0,0.0,72,0.00,,,0.00,VWS V14.01,2013-02-13 09:37:00,
2013-02-13 04:41:00,30.3,22.7,29.85,WSW,240,1.0,4.0,73,0.00,,,0.00,VWS V14.01,2013-02-13 09:41:00,
2013-02-13 04:42:00,30.3,22.7,29.85,WSW,240,1.0,4.0,73,0.00,,,0.00,VWS V14.01,2013-02-13 09:42:00,
2013-02-13 04:43:00,30.3,22.7,29.85,WSW,240,0.0,4.0,73,0.00,,,0.00,VWS V14.01,2013-02-13 09:43:00,
2013-02-13 04:45:00,30.3,22.7,29.85,WSW,240,1.0,4.0,73,0.00,,,0.00,VWS V14.01,2013-02-13 09:45:00,
2013-02-13 04:46:00,30.3,22.7,29.85,WSW,240,0.0,4.0,73,0.00,,,0.00,VWS V14.01,2013-02-13 09:46:00,
2013-02-13 04:48:00,30.1,22.5,29.87,WSW,240,0.0,4.0,73,0.00,,,0.00,VWS V14.01,2013-02-13 09:48:00,
2013-02-13 04:51:00,30.1,22.5,29.87,WSW,240,0.0,4.0,73,0.00,,,0.00,VWS V14.01,2013-02-13 09:51:00,
2013-02-13 04:53:00,30.1,22.5,29.87,WSW,240,0.0,4.0,73,0.00,,,0.00,VWS V14.01,2013-02-13 09:53:00,
2013-02-13 04:56:00,30.1,22.5,29.87,WSW,240,0.0,4.0,73,0.00,,,0.00,VWS V14.01,2013-02-13 09:56:00,
2013-02-13 04:57:00,30.1,22.5,29.87,WSW,240,0.0,4.0,73,0.00,,,0.00,VWS V14.01,2013-02-13 09:57:00,
2013-02-13 05:00:00,30.3,22.7,29.87,WSW,240,0.0,4.0,73,0.00,,,0.00,VWS V14.01,2013-02-13 10:00:00,
2013-02-13 05:01:00,30.3,22.7,29.87,WSW,240,0.0,4.0,73,0.00,,,0.00,VWS V14.01,2013-02-13 10:01:00,
2013-02-13 05:02:00,30.3,22.7,29.87,WSW,240,0.0,4.0,73,0.00,,,0.00,VWS V14.01,2013-02-13 10:02:00,
2013-02-13 05:05:00,30.3,22.7,29.86,WSW,240,0.0,0.0,73,0.00,,,0.00,VWS V14.01,2013-02-13 10:05:00,
2013-02-13 05:06:00,30.3,22.7,29.86,WSW,240,0.0,0.0,73,0.00,,,0.00,VWS V14.01,2013-02-13 10:06:00,
2013-02-13 05:08:00,30.3,23.0,29.86,WSW,240,0.0,0.0,74,0.00,,,0.00,VWS V14.01,2013-02-13 10:08:00,
2013-02-13 05:09:00,30.3,23.0,29.86,WSW,240,0.0,0.0,74,0.00,,,0.00,VWS V14.01,2013-02-13 10:09:00,
2013-02-13 05:11:00,30.3,23.0,29.86,WSW,240,0.0,0.0,74,0.00,,,0.00,VWS V14.01,2013-02-13 10:11:00,
2013-02-13 05:12:00,30.3,23.0,29.86,WSW,240,0.0,0.0,74,0.00,,,0.00,VWS V14.01,2013-02-13 10:12:00,
2013-02-13 05:14:00,30.3,23.0,29.86,WSW,240,0.0,0.0,74,0.00,,,0.00,VWS V14.01,2013-02-13 10:14:00,
2013-02-13 05:17:00,30.3,23.0,29.86,WSW,240,0.0,0.0,74,0.00,,,0.00,VWS V14.01,2013-02-13 10:17:00,
2013-02-13 05:18:00,30.3,23.0,29.87,WSW,240,0.0,0.0,74,0.00,,,0.00,VWS V14.01,2013-02-13 10:18:00,
2013-02-13 05:20:00,30.4,23.1,29.87,WSW,240,0.0,0.0,74,0.00,,,0.00,VWS V14.01,2013-02-13 10:20:00,
2013-02-13 05:22:00,30.4,23.1,29.87,WSW,240,0.0,0.0,74,0.00,,,0.00,VWS V14.01,2013-02-13 10:22:00,
2013-02-13 05:23:00,30.4,23.1,29.87,WSW,240,0.0,0.0,74,0.00,,,0.00,VWS V14.01,2013-02-13 10:23:00,
2013-02-13 05:25:00,30.3,23.0,29.87,WSW,240,0.0,0.0,74,0.00,,,0.00,VWS V14.01,2013-02-13 10:25:00,
2013-02-13 05:26:00,30.3,23.0,29.87,WSW,240,0.0,0.0,74,0.00,,,0.00,VWS V14.01,2013-02-13 10:26:00,
2013-02-13 05:30:00,30.1,22.8,29.87,WSW,240,0.0,0.0,74,0.00,,,0.00,VWS V14.01,2013-02-13 10:30:00,
2013-02-13 05:31:00,30.1,22.8,29.87,WSW,240,0.0,0.0,74,0.00,,,0.00,VWS V14.01,2013-02-13 10:31:00,
2013-02-13 05:33:00,30.0,22.7,29.86,WSW,240,0.0,0.0,74,0.00,,,0.00,VWS V14.01,2013-02-13 10:33:00,
2013-02-13 05:36:00,29.8,22.5,29.86,WSW,240,0.0,0.0,74,0.00,,,0.00,VWS V14.01,2013-02-13 10:36:00,
2013-02-13 05:37:00,29.8,22.5,29.86,WSW,240,0.0,0.0,74,0.00,,,0.00,VWS V14.01,2013-02-13 10:37:00,
2013-02-13 05:39:00,29.8,22.5,29.86,WSW,240,0.0,0.0,74,0.00,,,0.00,VWS V14.01,2013-02-13 10:39:00,
2013-02-13 05:41:00,29.7,22.8,29.86,WSW,240,0.0,0.0,75,0.00,,,0.00,VWS V14.01,2013-02-13 10:41:00,
2013-02-13 05:42:00,29.7,22.8,29.86,WSW,240,0.0,1.0,75,0.00,,,0.00,VWS V14.01,2013-02-13 10:42:00,
2013-02-13 05:43:00,29.7,22.8,29.86,WSW,240,0.0,1.0,75,0.00,,,0.00,VWS V14.01,2013-02-13 10:43:00,
2013-02-13 05:47:00,29.7,22.8,29.86,WSW,240,0.0,1.0,75,0.00,,,0.00,VWS V14.01,2013-02-13 10:47:00,
2013-02-13 05:48:00,29.7,22.8,29.85,WSW,240,0.0,1.0,75,0.00,,,0.00,VWS V14.01,2013-02-13 10:48:00,
2013-02-13 05:49:00,29.7,22.8,29.85,WSW,240,0.0,1.0,75,0.00,,,0.00,VWS V14.01,2013-02-13 10:49:00,
2013-02-13 05:50:00,29.5,22.6,29.85,WSW,240,0.0,1.0,75,0.00,,,0.00,VWS V14.01,2013-02-13 10:50:00,
2013-02-13 05:54:00,29.5,22.6,29.85,WSW,240,0.0,1.0,75,0.00,,,0.00,VWS V14.01,2013-02-13 10:54:00,
2013-02-13 05:55:00,29.5,22.6,29.85,WSW,240,0.0,1.0,75,0.00,,,0.00,VWS V14.01,2013-02-13 10:55:00,
2013-02-13 05:56:00,29.4,22.5,29.85,WSW,240,0.0,1.0,75,0.00,,,0.00,VWS V14.01,2013-02-13 10:56:00,
2013-02-13 05:59:00,29.4,22.8,29.85,WSW,240,0.0,1.0,76,0.00,,,0.00,VWS V14.01,2013-02-13 10:59:00,
2013-02-13 06:00:00,29.4,22.8,29.85,WSW,240,0.0,1.0,76,0.00,,,0.00,VWS V14.01,2013-02-13 11:00:00,
2013-02-13 06:01:00,29.4,22.8,29.85,WSW,240,0.0,1.0,76,0.00,,,0.00,VWS V14.01,2013-02-13 11:01:00,
2013-02-13 06:03:00,29.4,22.8,29.85,WSW,240,0.0,1.0,76,0.00,,,0.00,VWS V14.01,2013-02-13 11:03:00,
2013-02-13 06:06:00,29.4,22.8,29.85,WSW,240,0.0,0.0,76,0.00,,,0.00,VWS V14.01,2013-02-13 11:06:00,
2013-02-13 06:07:00,29.4,22.8,29.85,WSW,240,0.0,0.0,76,0.00,,,0.00,VWS V14.01,2013-02-13 11:07:00,
2013-02-13 06:09:00,29.4,22.8,29.85,WSW,240,0.0,0.0,76,0.00,,,0.00,VWS V14.01,2013-02-13 11:09:00,
2013-02-13 06:10:00,29.4,22.8,29.85,WSW,240,0.0,0.0,76,0.00,,,0.00,VWS V14.01,2013-02-13 11:10:00,
2013-02-13 06:12:00,29.4,22.8,29.85,WSW,240,0.0,0.0,76,0.00,,,0.00,VWS V14.01,2013-02-13 11:12:00,
2013-02-13 06:15:00,29.4,22.8,29.85,WSW,240,0.0,0.0,76,0.00,,,0.00,VWS V14.01,2013-02-13 11:15:00,
2013-02-13 06:16:00,29.5,22.9,29.85,WSW,240,0.0,0.0,76,0.00,,,0.00,VWS V14.01,2013-02-13 11:16:00,
2013-02-13 06:18:00,29.5,22.9,29.85,WSW,240,0.0,0.0,76,0.00,,,0.00,VWS V14.01,2013-02-13 11:18:00,
2013-02-13 06:20:00,29.5,22.9,29.85,WSW,240,0.0,0.0,76,0.00,,,0.00,VWS V14.01,2013-02-13 11:20:00,
2013-02-13 06:22:00,29.5,22.9,29.85,WSW,240,0.0,0.0,76,0.00,,,0.00,VWS V14.01,2013-02-13 11:22:00,
2013-02-13 06:24:00,29.5,22.9,29.85,WSW,240,0.0,0.0,76,0.00,,,0.00,VWS V14.01,2013-02-13 11:24:00,
2013-02-13 06:26:00,29.5,23.2,29.85,WSW,240,0.0,0.0,77,0.00,,,0.00,VWS V14.01,2013-02-13 11:26:00,
2013-02-13 06:29:00,29.4,22.8,29.85,WSW,240,0.0,0.0,76,0.00,,,0.00,VWS V14.01,2013-02-13 11:29:00,
2013-02-13 06:30:00,29.4,22.8,29.85,WSW,240,0.0,0.0,76,0.00,,,0.00,VWS V14.01,2013-02-13 11:30:00,
2013-02-13 06:31:00,29.4,23.1,29.85,WSW,240,0.0,0.0,77,0.00,,,0.00,VWS V14.01,2013-02-13 11:31:00,
2013-02-13 06:32:00,29.4,22.8,29.85,WSW,240,0.0,0.0,76,0.00,,,0.00,VWS V14.01,2013-02-13 11:32:00,
2013-02-13 06:35:00,29.3,23.0,29.85,WSW,240,0.0,0.0,77,0.00,,,0.00,VWS V14.01,2013-02-13 11:35:00,
2013-02-13 06:37:00,29.3,23.0,29.85,WSW,240,0.0,0.0,77,0.00,,,0.00,VWS V14.01,2013-02-13 11:37:00,
2013-02-13 06:38:00,29.3,23.0,29.85,WSW,240,0.0,0.0,77,0.00,,,0.00,VWS V14.01,2013-02-13 11:38:00,
2013-02-13 06:40:00,29.3,23.0,29.85,WSW,240,0.0,0.0,77,0.00,,,0.00,VWS V14.01,2013-02-13 11:40:00,
2013-02-13 06:42:00,29.3,23.0,29.85,WSW,240,0.0,0.0,77,0.00,,,0.00,VWS V14.01,2013-02-13 11:42:00,
2013-02-13 06:43:00,29.3,23.0,29.85,WSW,240,0.0,0.0,77,0.00,,,0.00,VWS V14.01,2013-02-13 11:43:00,
2013-02-13 06:46:00,29.3,23.0,29.85,WSW,240,0.0,0.0,77,0.00,,,0.00,VWS V14.01,2013-02-13 11:46:00,
2013-02-13 06:47:00,29.4,23.1,29.85,WSW,240,0.0,0.0,77,0.00,,,0.00,VWS V14.01,2013-02-13 11:47:00,
2013-02-13 06:48:00,29.4,23.1,29.85,WSW,240,0.0,0.0,77,0.00,,,0.00,VWS V14.01,2013-02-13 11:48:00,
2013-02-13 06:50:00,29.4,23.1,29.85,WSW,240,0.0,0.0,77,0.00,,,0.00,VWS V14.01,2013-02-13 11:50:00,
2013-02-13 06:52:00,29.4,23.1,29.85,WSW,240,0.0,0.0,77,0.00,,,0.00,VWS V14.01,2013-02-13 11:52:00,
2013-02-13 06:53:00,29.4,23.1,29.85,WSW,240,0.0,0.0,77,0.00,,,0.00,VWS V14.01,2013-02-13 11:53:00,
2013-02-13 06:55:00,29.4,23.1,29.85,WSW,240,0.0,0.0,77,0.00,,,0.00,VWS V14.01,2013-02-13 11:55:00,
2013-02-13 06:58:00,29.4,23.1,29.85,WSW,240,0.0,0.0,77,0.00,,,0.00,VWS V14.01,2013-02-13 11:58:00,
2013-02-13 06:59:00,29.4,23.1,29.85,WSW,240,0.0,0.0,77,0.00,,,0.00,VWS V14.01,2013-02-13 11:59:00,
2013-02-13 07:00:00,29.4,23.1,29.85,WSW,240,0.0,0.0,77,0.00,,,0.00,VWS V14.01,2013-02-13 12:00:00,
2013-02-13 07:01:00,29.4,23.1,29.85,WSW,240,0.0,0.0,77,0.00,,,0.00,VWS V14.01,2013-02-13 12:01:00,
2013-02-13 07:03:00,29.3,23.0,29.85,WSW,240,0.0,0.0,77,0.00,,,0.00,VWS V14.01,2013-02-13 12:03:00,
2013-02-13 07:05:00,29.3,23.0,29.85,WSW,240,0.0,0.0,77,0.00,,,0.00,VWS V14.01,2013-02-13 12:05:00,
2013-02-13 07:06:00,29.3,23.0,29.85,WSW,240,0.0,0.0,77,0.00,,,0.00,VWS V14.01,2013-02-13 12:06:00,
2013-02-13 07:07:00,29.3,23.0,29.85,WSW,240,0.0,0.0,77,0.00,,,0.00,VWS V14.01,2013-02-13 12:07:00,
2013-02-13 07:10:00,29.3,23.0,29.85,WSW,240,0.0,0.0,77,0.00,,,0.00,VWS V14.01,2013-02-13 12:10:00,
2013-02-13 07:12:00,29.4,23.1,29.85,WSW,240,0.0,0.0,77,0.00,,,0.00,VWS V14.01,2013-02-13 12:12:00,
2013-02-13 07:14:00,29.4,23.1,29.85,WSW,240,0.0,0.0,77,0.00,,,0.00,VWS V14.01,2013-02-13 12:14:00,
2013-02-13 07:17:00,29.4,23.1,29.85,WSW,240,0.0,0.0,77,0.00,,,0.00,VWS V14.01,2013-02-13 12:17:00,
2013-02-13 07:19:00,29.4,23.1,29.85,WSW,240,0.0,0.0,77,0.00,,,0.00,VWS V14.01,2013-02-13 12:19:00,
2013-02-13 07:20:00,29.4,23.1,29.85,WSW,240,0.0,0.0,77,0.00,,,0.00,VWS V14.01,2013-02-13 12:20:00,
2013-02-13 07:23:00,29.4,23.4,29.85,WSW,240,0.0,0.0,78,0.00,,,0.00,VWS V14.01,2013-02-13 12:23:00,
2013-02-13 07:25:00,29.4,23.4,29.85,WSW,240,0.0,0.0,78,0.00,,,0.00,VWS V14.01,2013-02-13 12:25:00,
2013-02-13 07:26:00,29.4,23.4,29.85,WSW,240,0.0,0.0,78,0.00,,,0.00,VWS V14.01,2013-02-13 12:26:00,
2013-02-13 07:28:00,29.4,23.4,29.85,WSW,240,0.0,0.0,78,0.00,,,0.00,VWS V14.01,2013-02-13 12:28:00,
2013-02-13 07:29:00,29.4,23.4,29.85,WSW,240,0.0,0.0,78,0.00,,,0.00,VWS V14.01,2013-02-13 12:29:00,
2013-02-13 07:33:00,29.4,23.4,29.85,WSW,240,0.0,0.0,78,0.00,,,0.00,VWS V14.01,2013-02-13 12:33:00,
2013-02-13 07:34:00,29.4,23.4,29.85,WSW,240,0.0,0.0,78,0.00,,,0.00,VWS V14.01,2013-02-13 12:34:00,
2013-02-13 07:36:00,29.5,23.5,29.85,WSW,240,0.0,0.0,78,0.00,,,0.00,VWS V14.01,2013-02-13 12:36:00,
2013-02-13 07:39:00,29.7,23.7,29.85,WSW,240,0.0,0.0,78,0.00,,,0.00,VWS V14.01,2013-02-13 12:39:00,
2013-02-13 07:40:00,29.7,23.7,29.85,WSW,240,0.0,0.0,78,0.00,,,0.00,VWS V14.01,2013-02-13 12:40:00,
2013-02-13 07:43:00,29.7,23.7,29.85,WSW,240,0.0,0.0,78,0.00,,,0.00,VWS V14.01,2013-02-13 12:43:00,
2013-02-13 07:45:00,29.8,24.1,29.85,WSW,240,0.0,0.0,79,0.00,,,0.00,VWS V14.01,2013-02-13 12:45:00,
2013-02-13 07:47:00,30.0,24.3,29.85,WSW,240,0.0,0.0,79,0.00,,,0.00,VWS V14.01,2013-02-13 12:47:00,
2013-02-13 07:50:00,30.1,24.1,29.86,WSW,240,0.0,2.0,78,0.00,,,0.00,VWS V14.01,2013-02-13 12:50:00,
2013-02-13 07:53:00,30.9,24.9,29.86,WSW,240,0.0,2.0,78,0.00,,,0.00,VWS V14.01,2013-02-13 12:53:00,
2013-02-13 07:55:00,31.3,24.9,29.86,WSW,240,0.0,2.0,77,0.00,,,0.00,VWS V14.01,2013-02-13 12:55:00,
2013-02-13 07:57:00,31.9,24.9,29.86,WSW,240,0.0,2.0,75,0.00,,,0.00,VWS V14.01,2013-02-13 12:57:00,
2013-02-13 07:58:00,32.2,25.2,29.86,WSW,240,0.0,2.0,75,0.00,,,0.00,VWS V14.01,2013-02-13 12:58:00,
2013-02-13 08:00:00,32.5,24.8,29.86,WSW,240,0.0,2.0,73,0.00,,,0.00,VWS V14.01,2013-02-13 13:00:00,
2013-02-13 08:03:00,32.8,25.1,29.85,WSW,240,0.0,4.0,73,0.00,,,0.00,VWS V14.01,2013-02-13 13:03:00,
2013-02-13 08:04:00,32.9,24.9,29.85,WSW,240,0.0,0.0,72,0.00,,,0.00,VWS V14.01,2013-02-13 13:04:00,
2013-02-13 08:06:00,33.1,25.1,29.85,WSW,240,0.0,0.0,72,0.00,,,0.00,VWS V14.01,2013-02-13 13:06:00,
2013-02-13 08:09:00,33.2,25.2,29.85,WSW,240,0.0,0.0,72,0.00,,,0.00,VWS V14.01,2013-02-13 13:09:00,
2013-02-13 08:11:00,33.2,25.2,29.85,WSW,240,0.0,0.0,72,0.00,,,0.00,VWS V14.01,2013-02-13 13:11:00,
2013-02-13 08:12:00,33.2,25.2,29.85,WSW,240,0.0,0.0,72,0.00,,,0.00,VWS V14.01,2013-02-13 13:12:00,
2013-02-13 08:16:00,33.5,25.5,29.85,WSW,240,0.0,0.0,72,0.00,,,0.00,VWS V14.01,2013-02-13 13:16:00,
2013-02-13 08:17:00,33.5,25.5,29.85,WSW,240,0.0,0.0,72,0.00,,,0.00,VWS V14.01,2013-02-13 13:17:00,
2013-02-13 08:22:00,34.1,25.4,29.85,WSW,240,0.0,2.0,70,0.00,,,0.00,VWS V14.01,2013-02-13 13:22:00,
2013-02-13 08:23:00,34.3,25.2,29.85,WSW,240,0.0,2.0,69,0.00,,,0.00,VWS V14.01,2013-02-13 13:23:00,
2013-02-13 08:24:00,34.6,25.5,29.85,WSW,240,0.0,2.0,69,0.00,,,0.00,VWS V14.01,2013-02-13 13:24:00,
2013-02-13 08:25:00,34.7,25.2,29.85,WSW,240,0.0,2.0,68,0.00,,,0.00,VWS V14.01,2013-02-13 13:25:00,
2013-02-13 08:27:00,35.2,25.4,29.85,WSW,240,0.0,2.0,67,0.00,,,0.00,VWS V14.01,2013-02-13 13:27:00,
2013-02-13 08:28:00,35.5,25.6,29.85,WSW,240,0.0,2.0,67,0.00,,,0.00,VWS V14.01,2013-02-13 13:28:00,
2013-02-13 08:29:00,35.6,25.7,29.85,WSW,240,0.0,2.0,67,0.00,,,0.00,VWS V14.01,2013-02-13 13:29:00,
2013-02-13 08:32:00,36.2,24.8,29.85,WSW,240,0.0,2.0,63,0.00,,,0.00,VWS V14.01,2013-02-13 13:32:00,
2013-02-13 08:33:00,36.3,25.3,29.84,WSW,240,0.0,2.0,64,0.00,,,0.00,VWS V14.01,2013-02-13 13:33:00,
2013-02-13 08:34:00,36.6,25.6,29.84,WSW,240,0.0,0.0,64,0.00,,,0.00,VWS V14.01,2013-02-13 13:34:00,
2013-02-13 08:38:00,37.3,25.1,29.84,WSW,240,0.0,0.0,61,0.00,,,0.00,VWS V14.01,2013-02-13 13:38:00,
2013-02-13 08:40:00,37.5,24.9,29.84,WSW,240,0.0,0.0,60,0.00,,,0.00,VWS V14.01,2013-02-13 13:40:00,
2013-02-13 08:41:00,37.6,25.4,29.84,WSW,240,0.0,0.0,61,0.00,,,0.00,VWS V14.01,2013-02-13 13:41:00,
2013-02-13 08:43:00,37.9,25.7,29.84,WSW,240,0.0,0.0,61,0.00,,,0.00,VWS V14.01,2013-02-13 13:43:00,
2013-02-13 08:45:00,38.2,24.7,29.84,WSW,240,0.0,0.0,58,0.00,,,0.00,VWS V14.01,2013-02-13 13:45:00,
2013-02-13 08:47:00,38.2,24.7,29.84,WSW,240,0.0,0.0,58,0.00,,,0.00,VWS V14.01,2013-02-13 13:47:00,
2013-02-13 08:49:00,38.2,24.3,29.84,WSW,240,0.0,0.0,57,0.00,,,0.00,VWS V14.01,2013-02-13 13:49:00,
2013-02-13 08:50:00,38.0,24.1,29.84,WSW,240,0.0,0.0,57,0.00,,,0.00,VWS V14.01,2013-02-13 13:50:00,
2013-02-13 08:51:00,38.0,24.1,29.84,WSW,240,0.0,0.0,57,0.00,,,0.00,VWS V14.01,2013-02-13 13:51:00,
2013-02-13 08:54:00,38.2,23.9,29.84,WSW,240,0.0,0.0,56,0.00,,,0.00,VWS V14.01,2013-02-13 13:54:00,
2013-02-13 08:55:00,38.3,24.4,29.84,WSW,240,0.0,0.0,57,0.00,,,0.00,VWS V14.01,2013-02-13 13:55:00,
2013-02-13 08:56:00,38.5,25.0,29.84,WSW,240,0.0,0.0,58,0.00,,,0.00,VWS V14.01,2013-02-13 13:56:00,
2013-02-13 09:00:00,39.2,24.4,29.84,WSW,240,0.0,0.0,55,0.00,,,0.00,VWS V14.01,2013-02-13 14:00:00,
2013-02-13 09:01:00,39.5,25.1,29.84,WSW,240,0.0,0.0,56,0.00,,,0.00,VWS V14.01,2013-02-13 14:01:00,
2013-02-13 09:02:00,39.5,24.7,29.84,WSW,240,0.0,0.0,55,0.00,,,0.00,VWS V14.01,2013-02-13 14:02:00,
2013-02-13 09:05:00,39.6,25.2,29.84,WSW,240,0.0,0.0,56,0.00,,,0.00,VWS V14.01,2013-02-13 14:05:00,
2013-02-13 09:07:00,39.8,24.5,29.84,WSW,240,0.0,0.0,54,0.00,,,0.00,VWS V14.01,2013-02-13 14:07:00,
2013-02-13 09:10:00,39.8,23.6,29.84,WSW,244,1.0,3.0,52,0.00,,,0.00,VWS V14.01,2013-02-13 14:10:00,
2013-02-13 09:11:00,39.6,23.9,29.84,East,83,2.0,4.0,53,0.00,,,0.00,VWS V14.01,2013-02-13 14:11:00,
2013-02-13 09:15:00,39.2,24.0,29.84,East,82,0.0,4.0,54,0.00,,,0.00,VWS V14.01,2013-02-13 14:15:00,
2013-02-13 09:17:00,39.2,24.0,29.83,East,82,3.0,4.0,54,0.00,,,0.00,VWS V14.01,2013-02-13 14:17:00,
2013-02-13 09:20:00,39.1,24.3,29.83,ENE,68,0.0,5.0,55,0.00,,,0.00,VWS V14.01,2013-02-13 14:20:00,
2013-02-13 09:21:00,39.2,24.8,29.83,ENE,68,1.0,5.0,56,0.00,,,0.00,VWS V14.01,2013-02-13 14:21:00,
2013-02-13 09:24:00,39.2,24.8,29.83,ENE,72,4.0,5.0,56,0.00,,,0.00,VWS V14.01,2013-02-13 14:24:00,
2013-02-13 09:27:00,39.2,24.8,29.83,ENE,72,0.0,5.0,56,0.00,,,0.00,VWS V14.01,2013-02-13 14:27:00,
2013-02-13 09:28:00,39.2,24.4,29.83,ENE,72,0.0,5.0,55,0.00,,,0.00,VWS V14.01,2013-02-13 14:28:00,
2013-02-13 09:29:00,39.1,24.7,29.83,ENE,73,0.0,5.0,56,0.00,,,0.00,VWS V14.01,2013-02-13 14:29:00,
2013-02-13 09:34:00,38.8,24.5,29.83,ENE,73,0.0,0.0,56,0.00,,,0.00,VWS V14.01,2013-02-13 14:34:00,
2013-02-13 09:36:00,38.6,24.7,29.83,ENE,73,0.0,3.0,57,0.00,,,0.00,VWS V14.01,2013-02-13 14:36:00,
2013-02-13 09:37:00,38.6,24.7,29.83,ENE,73,0.0,3.0,57,0.00,,,0.00,VWS V14.01,2013-02-13 14:37:00,
2013-02-13 09:39:00,38.5,24.6,29.83,ENE,74,0.0,3.0,57,0.00,,,0.00,VWS V14.01,2013-02-13 14:39:00,
2013-02-13 09:40:00,38.5,24.2,29.83,ENE,74,0.0,3.0,56,0.00,,,0.00,VWS V14.01,2013-02-13 14:40:00,
2013-02-13 09:43:00,38.5,25.0,29.83,ENE,74,0.0,3.0,58,0.00,,,0.00,VWS V14.01,2013-02-13 14:43:00,
2013-02-13 09:44:00,38.5,25.0,29.83,ENE,74,0.0,3.0,58,0.00,,,0.00,VWS V14.01,2013-02-13 14:44:00,
2013-02-13 09:45:00,38.5,25.0,29.83,ENE,75,0.0,3.0,58,0.00,,,0.00,VWS V14.01,2013-02-13 14:45:00,
2013-02-13 09:47:00,38.5,25.0,29.83,ENE,75,0.0,3.0,58,0.00,,,0.00,VWS V14.01,2013-02-13 14:47:00,
2013-02-13 09:48:00,38.5,25.0,29.83,ENE,75,0.0,3.0,58,0.00,,,0.00,VWS V14.01,2013-02-13 14:48:00,
2013-02-13 09:51:00,38.6,25.5,29.83,ENE,75,0.0,3.0,59,0.00,,,0.00,VWS V14.01,2013-02-13 14:51:00,
2013-02-13 09:53:00,38.6,25.1,29.83,ENE,76,0.0,3.0,58,0.00,,,0.00,VWS V14.01,2013-02-13 14:53:00,
2013-02-13 09:54:00,38.6,25.1,29.83,ENE,75,1.0,3.0,58,0.00,,,0.00,VWS V14.01,2013-02-13 14:54:00,
2013-02-13 09:56:00,38.6,25.5,29.83,ENE,76,0.0,3.0,59,0.00,,,0.00,VWS V14.01,2013-02-13 14:56:00,
2013-02-13 09:58:00,38.6,25.5,29.83,ENE,76,0.0,3.0,59,0.00,,,0.00,VWS V14.01,2013-02-13 14:58:00,
2013-02-13 10:00:00,38.6,25.9,29.83,ENE,76,0.0,3.0,60,0.00,,,0.00,VWS V14.01,2013-02-13 15:00:00,
2013-02-13 10:01:00,38.6,25.5,29.83,ENE,76,0.0,3.0,59,0.00,,,0.00,VWS V14.01,2013-02-13 15:01:00,
2013-02-13 10:03:00,38.6,25.5,29.84,ENE,76,0.0,0.0,59,0.00,,,0.00,VWS V14.01,2013-02-13 15:03:00,
2013-02-13 10:04:00,38.6,25.5,29.84,ENE,76,0.0,0.0,59,0.00,,,0.00,VWS V14.01,2013-02-13 15:04:00,
2013-02-13 10:09:00,38.6,25.5,29.84,ENE,76,0.0,0.0,59,0.00,,,0.00,VWS V14.01,2013-02-13 15:09:00,
2013-02-13 10:10:00,38.6,25.9,29.84,ENE,76,0.0,0.0,60,0.00,,,0.00,VWS V14.01,2013-02-13 15:10:00,
2013-02-13 10:11:00,38.6,25.9,29.84,ENE,76,0.0,0.0,60,0.00,,,0.00,VWS V14.01,2013-02-13 15:11:00,
2013-02-13 10:14:00,38.6,26.3,29.84,ENE,78,0.0,0.0,61,0.00,,,0.00,VWS V14.01,2013-02-13 15:14:00,
2013-02-13 10:15:00,38.6,26.3,29.84,ENE,78,2.0,2.0,61,0.00,,,0.00,VWS V14.01,2013-02-13 15:15:00,
2013-02-13 10:20:00,39.1,26.8,29.84,ENE,78,0.0,3.0,61,0.00,,,0.00,VWS V14.01,2013-02-13 15:20:00,
2013-02-13 10:21:00,39.1,26.4,29.84,ENE,78,0.0,3.0,60,0.00,,,0.00,VWS V14.01,2013-02-13 15:21:00,
2013-02-13 10:22:00,39.2,26.9,29.84,East,80,0.0,3.0,61,0.00,,,0.00,VWS V14.01,2013-02-13 15:22:00,
2013-02-13 10:27:00,39.2,26.9,29.84,East,80,0.0,3.0,61,0.00,,,0.00,VWS V14.01,2013-02-13 15:27:00,
2013-02-13 10:28:00,39.2,27.3,29.84,East,80,0.0,3.0,62,0.00,,,0.00,VWS V14.01,2013-02-13 15:28:00,
2013-02-13 10:31:00,39.3,27.4,29.84,East,96,0.0,5.0,62,0.00,,,0.00,VWS V14.01,2013-02-13 15:31:00,
2013-02-13 10:32:00,39.3,27.4,29.84,East,96,2.0,5.0,62,0.00,,,0.00,VWS V14.01,2013-02-13 15:32:00,
2013-02-13 10:33:00,39.5,27.6,29.84,East,96,0.0,5.0,62,0.00,,,0.00,VWS V14.01,2013-02-13 15:33:00,
2013-02-13 10:36:00,39.5,27.2,29.84,East,97,0.0,0.0,61,0.00,,,0.00,VWS V14.01,2013-02-13 15:36:00,
2013-02-13 10:39:00,39.6,27.3,29.84,East,97,0.0,0.0,61,0.00,,,0.00,VWS V14.01,2013-02-13 15:39:00,
2013-02-13 10:41:00,39.6,27.3,29.84,East,97,0.0,0.0,61,0.00,,,0.00,VWS V14.01,2013-02-13 15:41:00,
2013-02-13 10:44:00,39.6,27.7,29.84,East,97,0.0,0.0,62,0.00,,,0.00,VWS V14.01,2013-02-13 15:44:00,
2013-02-13 10:45:00,39.6,27.7,29.84,East,97,0.0,0.0,62,0.00,,,0.00,VWS V14.01,2013-02-13 15:45:00,
2013-02-13 10:47:00,39.6,27.7,29.84,East,97,0.0,0.0,62,0.00,,,0.00,VWS V14.01,2013-02-13 15:47:00,
2013-02-13 10:49:00,39.8,27.9,29.84,East,97,0.0,0.0,62,0.00,,,0.00,VWS V14.01,2013-02-13 15:49:00,
2013-02-13 10:51:00,39.6,27.7,29.84,East,97,0.0,0.0,62,0.00,,,0.00,VWS V14.01,2013-02-13 15:51:00,
2013-02-13 10:52:00,39.6,27.7,29.84,East,97,0.0,0.0,62,0.00,,,0.00,VWS V14.01,2013-02-13 15:52:00,
2013-02-13 10:55:00,39.6,28.1,29.84,East,97,0.0,0.0,63,0.00,,,0.00,VWS V14.01,2013-02-13 15:55:00,
2013-02-13 10:57:00,39.5,28.0,29.84,East,97,0.0,0.0,63,0.00,,,0.00,VWS V14.01,2013-02-13 15:57:00,
2013-02-13 11:01:00,39.5,28.0,29.84,East,97,0.0,1.0,63,0.00,,,0.00,VWS V14.01,2013-02-13 16:01:00,
2013-02-13 11:02:00,39.5,28.0,29.84,East,97,0.0,1.0,63,0.00,,,0.00,VWS V14.01,2013-02-13 16:02:00,
2013-02-13 11:03:00,39.5,28.0,29.84,East,97,0.0,1.0,63,0.00,,,0.00,VWS V14.01,2013-02-13 16:03:00,
2013-02-13 11:07:00,39.5,28.0,29.84,East,97,0.0,0.0,63,0.00,,,0.00,VWS V14.01,2013-02-13 16:07:00,
2013-02-13 11:09:00,39.5,28.0,29.84,East,97,0.0,0.0,63,0.00,,,0.00,VWS V14.01,2013-02-13 16:09:00,
2013-02-13 11:10:00,39.6,28.4,29.84,East,97,0.0,0.0,64,0.00,,,0.00,VWS V14.01,2013-02-13 16:10:00,
2013-02-13 11:14:00,39.6,28.4,29.84,East,97,0.0,0.0,64,0.00,,,0.00,VWS V14.01,2013-02-13 16:14:00,
2013-02-13 11:15:00,39.6,28.4,29.84,East,97,0.0,0.0,64,0.00,,,0.00,VWS V14.01,2013-02-13 16:15:00,
2013-02-13 11:17:00,39.6,28.1,29.84,East,97,0.0,0.0,63,0.00,,,0.00,VWS V14.01,2013-02-13 16:17:00,
2013-02-13 11:20:00,39.8,28.6,29.82,East,94,0.0,0.0,64,0.00,,,0.00,VWS V14.01,2013-02-13 16:20:00,
2013-02-13 11:22:00,39.8,28.2,29.82,East,94,0.0,0.0,63,0.00,,,0.00,VWS V14.01,2013-02-13 16:22:00,
2013-02-13 11:23:00,39.8,28.2,29.82,East,94,0.0,0.0,63,0.00,,,0.00,VWS V14.01,2013-02-13 16:23:00,
2013-02-13 11:28:00,39.9,28.7,29.82,East,94,0.0,2.0,64,0.00,,,0.00,VWS V14.01,2013-02-13 16:28:00,
2013-02-13 11:32:00,40.1,28.9,29.82,East,94,4.0,4.0,64,0.00,,,0.00,VWS V14.01,2013-02-13 16:32:00,
2013-02-13 11:33:00,40.1,28.9,29.81,East,92,0.0,4.0,64,0.00,,,0.00,VWS V14.01,2013-02-13 16:33:00,
2013-02-13 11:39:00,39.8,28.6,29.81,East,92,0.0,4.0,64,0.00,,,0.00,VWS V14.01,2013-02-13 16:39:00,
2013-02-13 11:40:00,39.8,28.6,29.81,East,91,0.0,4.0,64,0.00,,,0.00,VWS V14.01,2013-02-13 16:40:00,
2013-02-13 11:42:00,39.8,28.6,29.81,East,91,0.0,4.0,64,0.00,,,0.00,VWS V14.01,2013-02-13 16:42:00,
2013-02-13 11:45:00,39.6,28.4,29.81,East,91,0.0,4.0,64,0.00,,,0.00,VWS V14.01,2013-02-13 16:45:00,
2013-02-13 11:50:00,39.8,29.0,29.80,East,91,0.0,4.0,65,0.00,,,0.00,VWS V14.01,2013-02-13 16:50:00,
2013-02-13 11:51:00,39.8,29.0,29.80,East,89,3.0,4.0,65,0.00,,,0.00,VWS V14.01,2013-02-13 16:51:00,
2013-02-13 11:53:00,39.8,29.0,29.80,ENE,73,0.0,4.0,65,0.00,,,0.00,VWS V14.01,2013-02-13 16:53:00,
2013-02-13 11:56:00,39.8,29.0,29.80,ENE,72,0.0,4.0,65,0.00,,,0.00,VWS V14.01,2013-02-13 16:56:00,
2013-02-13 11:58:00,39.6,28.8,29.80,ENE,72,0.0,4.0,65,0.00,,,0.00,VWS V14.01,2013-02-13 16:58:00,
2013-02-13 12:01:00,39.6,29.2,29.80,ENE,72,0.0,4.0,66,0.00,,,0.00,VWS V14.01,2013-02-13 17:01:00,
2013-02-13 12:03:00,39.8,29.4,29.79,ENE,71,0.0,4.0,66,0.00,,,0.00,VWS V14.01,2013-02-13 17:03:00,
2013-02-13 12:05:00,39.8,29.4,29.79,ENE,64,2.0,4.0,66,0.00,,,0.00,VWS V14.01,2013-02-13 17:05:00,
2013-02-13 12:09:00,39.8,29.0,29.79,ENE,65,0.0,4.0,65,0.00,,,0.00,VWS V14.01,2013-02-13 17:09:00,
2013-02-13 12:10:00,39.8,29.0,29.79,ENE,64,0.0,4.0,65,0.00,,,0.00,VWS V14.01,2013-02-13 17:10:00,
2013-02-13 12:14:00,39.6,29.2,29.79,ENE,65,0.0,4.0,66,0.00,,,0.00,VWS V14.01,2013-02-13 17:14:00,
2013-02-13 12:15:00,39.6,29.2,29.79,ENE,65,0.0,4.0,66,0.00,,,0.00,VWS V14.01,2013-02-13 17:15:00,
2013-02-13 12:16:00,39.6,29.2,29.79,ENE,65,0.0,4.0,66,0.00,,,0.00,VWS V14.01,2013-02-13 17:16:00,
2013-02-13 12:20:00,39.6,29.2,29.79,ENE,65,0.0,4.0,66,0.00,,,0.00,VWS V14.01,2013-02-13 17:20:00,
2013-02-13 12:22:00,39.6,29.6,29.79,ENE,65,0.0,4.0,67,0.00,,,0.00,VWS V14.01,2013-02-13 17:22:00,
2013-02-13 12:25:00,39.5,29.1,29.79,ENE,65,0.0,4.0,66,0.00,,,0.00,VWS V14.01,2013-02-13 17:25:00,
2013-02-13 12:28:00,39.5,29.5,29.79,ENE,65,0.0,4.0,67,0.00,,,0.00,VWS V14.01,2013-02-13 17:28:00,
2013-02-13 12:30:00,39.5,29.5,29.79,ENE,65,0.0,4.0,67,0.00,,,0.00,VWS V14.01,2013-02-13 17:30:00,
2013-02-13 12:33:00,39.5,29.5,29.77,ENE,65,0.0,4.0,67,0.00,,,0.00,VWS V14.01,2013-02-13 17:33:00,
2013-02-13 12:35:00,39.5,29.5,29.77,ENE,65,2.0,2.0,67,0.00,,,0.00,VWS V14.01,2013-02-13 17:35:00,
2013-02-13 12:36:00,39.5,29.5,29.77,ENE,64,0.0,2.0,67,0.00,,,0.00,VWS V14.01,2013-02-13 17:36:00,
2013-02-13 12:38:00,39.6,29.6,29.77,ENE,65,0.0,2.0,67,0.00,,,0.00,VWS V14.01,2013-02-13 17:38:00,
2013-02-13 12:40:00,39.6,29.6,29.77,ENE,65,0.0,5.0,67,0.00,,,0.00,VWS V14.01,2013-02-13 17:40:00,
2013-02-13 12:43:00,39.8,29.8,29.77,ENE,69,2.0,5.0,67,0.00,,,0.00,VWS V14.01,2013-02-13 17:43:00,
2013-02-13 12:45:00,39.9,29.5,29.77,ENE,66,0.0,5.0,66,0.00,,,0.00,VWS V14.01,2013-02-13 17:45:00,
2013-02-13 12:47:00,39.8,29.4,29.77,ENE,59,5.0,5.0,66,0.00,,,0.00,VWS V14.01,2013-02-13 17:47:00,
2013-02-13 12:48:00,39.9,29.5,29.76,ENE,67,0.0,6.0,66,0.00,,,0.00,VWS V14.01,2013-02-13 17:48:00,
2013-02-13 12:52:00,40.1,30.0,29.76,ENE,61,3.0,6.0,67,0.00,,,0.00,VWS V14.01,2013-02-13 17:52:00,
2013-02-13 12:53:00,40.2,30.1,29.76,ENE,61,4.0,6.0,67,0.00,,,0.00,VWS V14.01,2013-02-13 17:53:00,
2013-02-13 12:56:00,40.5,30.0,29.76,ENE,74,2.0,7.0,66,0.00,,,0.00,VWS V14.01,2013-02-13 17:56:00,
2013-02-13 12:57:00,40.5,29.7,29.76,ENE,59,4.0,7.0,65,0.00,,,0.00,VWS V14.01,2013-02-13 17:57:00,
2013-02-13 12:58:00,40.5,29.7,29.76,ENE,59,2.0,7.0,65,0.00,,,0.00,VWS V14.01,2013-02-13 17:58:00,
2013-02-13 13:01:00,40.3,29.5,29.76,ENE,76,1.0,7.0,65,0.00,,,0.00,VWS V14.01,2013-02-13 18:01:00,
2013-02-13 13:02:00,40.2,29.4,29.76,ENE,60,4.0,7.0,65,0.00,,,0.00,VWS V14.01,2013-02-13 18:02:00,
2013-02-13 13:03:00,40.2,29.8,29.76,ENE,62,2.0,7.0,66,0.00,,,0.00,VWS V14.01,2013-02-13 18:03:00,
2013-02-13 13:06:00,40.2,29.8,29.76,ENE,75,0.0,5.0,66,0.00,,,0.00,VWS V14.01,2013-02-13 18:06:00,
2013-02-13 13:08:00,40.2,30.1,29.76,ENE,68,0.0,5.0,67,0.00,,,0.00,VWS V14.01,2013-02-13 18:08:00,
2013-02-13 13:09:00,40.2,30.1,29.76,East,101,2.0,5.0,67,0.00,,,0.00,VWS V14.01,2013-02-13 18:09:00,
2013-02-13 13:13:00,40.2,30.1,29.76,East,88,2.0,5.0,67,0.00,,,0.00,VWS V14.01,2013-02-13 18:13:00,
2013-02-13 13:14:00,40.2,30.1,29.76,East,88,0.0,5.0,67,0.00,,,0.00,VWS V14.01,2013-02-13 18:14:00,
2013-02-13 13:19:00,40.5,30.4,29.74,ENE,77,0.0,5.0,67,0.00,,,0.00,VWS V14.01,2013-02-13 18:19:00,
2013-02-13 13:20:00,40.6,30.5,29.74,ESE,105,5.0,6.0,67,0.00,,,0.00,VWS V14.01,2013-02-13 18:20:00,
2013-02-13 13:21:00,40.8,31.1,29.74,ESE,103,0.0,6.0,68,0.00,,,0.00,VWS V14.01,2013-02-13 18:21:00,
2013-02-13 13:24:00,40.9,30.4,29.74,East,98,0.0,6.0,66,0.00,,,0.00,VWS V14.01,2013-02-13 18:24:00,
2013-02-13 13:26:00,40.9,30.4,29.74,ENE,71,0.0,6.0,66,0.00,,,0.00,VWS V14.01,2013-02-13 18:26:00,
2013-02-13 13:29:00,41.1,31.0,29.74,ESE,105,0.0,6.0,67,0.00,,,0.00,VWS V14.01,2013-02-13 18:29:00,
2013-02-13 13:31:00,41.1,31.0,29.74,ESE,113,5.0,7.0,67,0.00,,,0.00,VWS V14.01,2013-02-13 18:31:00,
2013-02-13 13:33:00,41.1,30.6,29.73,ESE,112,0.0,7.0,66,0.00,,,0.00,VWS V14.01,2013-02-13 18:33:00,
2013-02-13 13:36:00,41.1,31.0,29.73,East,88,0.0,3.0,67,0.00,,,0.00,VWS V14.01,2013-02-13 18:36:00,
2013-02-13 13:38:00,40.9,30.8,29.73,East,80,0.0,3.0,67,0.00,,,0.00,VWS V14.01,2013-02-13 18:38:00,
2013-02-13 13:39:00,40.8,30.7,29.73,East,80,0.0,3.0,67,0.00,,,0.00,VWS V14.01,2013-02-13 18:39:00,
2013-02-13 13:41:00,40.8,30.7,29.73,East,80,2.0,5.0,67,0.00,,,0.00,VWS V14.01,2013-02-13 18:41:00,
2013-02-13 13:43:00,40.6,30.5,29.73,ESE,111,2.0,5.0,67,0.00,,,0.00,VWS V14.01,2013-02-13 18:43:00,
2013-02-13 13:45:00,40.6,30.9,29.73,East,90,0.0,5.0,68,0.00,,,0.00,VWS V14.01,2013-02-13 18:45:00,
2013-02-13 13:47:00,40.6,30.9,29.71,East,94,5.0,6.0,68,0.00,,,0.00,VWS V14.01,2013-02-13 18:47:00,
2013-02-13 13:52:00,40.6,30.9,29.71,East,93,2.0,6.0,68,0.00,,,0.00,VWS V14.01,2013-02-13 18:52:00,
2013-02-13 13:53:00,40.5,30.8,29.71,East,101,4.0,6.0,68,0.00,,,0.00,VWS V14.01,2013-02-13 18:53:00,
2013-02-13 13:58:00,40.5,30.8,29.71,ENE,70,3.0,6.0,68,0.00,,,0.00,VWS V14.01,2013-02-13 18:58:00,
2013-02-13 13:59:00,40.5,30.8,29.71,East,83,1.0,6.0,68,0.00,,,0.00,VWS V14.01,2013-02-13 18:59:00,
2013-02-13 14:01:00,40.5,30.8,29.71,East,94,0.0,6.0,68,0.00,,,0.00,VWS V14.01,2013-02-13 19:01:00,
2013-02-13 14:04:00,40.5,30.8,29.71,East,93,0.0,0.0,68,0.00,,,0.00,VWS V14.01,2013-02-13 19:04:00,
2013-02-13 14:05:00,40.6,30.9,29.71,East,93,0.0,1.0,68,0.00,,,0.00,VWS V14.01,2013-02-13 19:05:00,
2013-02-13 14:07:00,40.9,31.5,29.71,East,86,0.0,6.0,69,0.00,,,0.00,VWS V14.01,2013-02-13 19:07:00,
2013-02-13 14:10:00,40.9,30.8,29.71,ESE,110,4.0,6.0,67,0.00,,,0.00,VWS V14.01,2013-02-13 19:10:00,
2013-02-13 14:14:00,40.9,30.4,29.71,ESE,122,7.0,8.0,66,0.00,,,0.00,VWS V14.01,2013-02-13 19:14:00,
2013-02-13 14:15:00,40.9,30.1,29.71,ESE,123,6.0,8.0,65,0.00,,,0.00,VWS V14.01,2013-02-13 19:15:00,
2013-02-13 14:19:00,41.1,29.9,29.72,ESE,115,4.0,8.0,64,0.00,,,0.00,VWS V14.01,2013-02-13 19:19:00,
2013-02-13 14:20:00,41.2,30.0,29.72,ESE,115,4.0,8.0,64,0.00,,,0.00,VWS V14.01,2013-02-13 19:20:00,
2013-02-13 14:21:00,41.3,29.7,29.72,SE,134,6.0,8.0,63,0.00,,,0.00,VWS V14.01,2013-02-13 19:21:00,
2013-02-13 14:25:00,41.6,30.0,29.72,ESE,115,6.0,8.0,63,0.00,,,0.00,VWS V14.01,2013-02-13 19:25:00,
2013-02-13 14:26:00,41.6,30.0,29.72,ESE,105,5.0,8.0,63,0.00,,,0.00,VWS V14.01,2013-02-13 19:26:00,
2013-02-13 14:27:00,41.6,30.0,29.72,ESE,115,7.0,8.0,63,0.00,,,0.00,VWS V14.01,2013-02-13 19:27:00,
2013-02-13 14:31:00,41.8,30.1,29.72,ESE,106,5.0,8.0,63,0.00,,,0.00,VWS V14.01,2013-02-13 19:31:00,
2013-02-13 14:32:00,41.8,30.1,29.72,ESE,108,2.0,8.0,63,0.00,,,0.00,VWS V14.01,2013-02-13 19:32:00,
2013-02-13 14:33:00,41.8,30.1,29.72,ESE,107,4.0,8.0,63,0.00,,,0.00,VWS V14.01,2013-02-13 19:33:00,
2013-02-13 14:35:00,41.8,30.5,29.72,ESE,111,6.0,7.0,64,0.00,,,0.00,VWS V14.01,2013-02-13 19:35:00,
2013-02-13 14:40:00,41.8,30.5,29.72,ESE,102,0.0,8.0,64,0.00,,,0.00,VWS V14.01,2013-02-13 19:40:00,
2013-02-13 14:41:00,41.8,30.1,29.72,ESE,102,0.0,8.0,63,0.00,,,0.00,VWS V14.01,2013-02-13 19:41:00,
2013-02-13 14:44:00,41.8,30.5,29.72,East,87,0.0,8.0,64,0.00,,,0.00,VWS V14.01,2013-02-13 19:44:00,
2013-02-13 14:46:00,41.8,30.1,29.72,East,86,3.0,8.0,63,0.00,,,0.00,VWS V14.01,2013-02-13 19:46:00,
2013-02-13 14:47:00,41.6,30.0,29.72,East,83,3.0,8.0,63,0.00,,,0.00,VWS V14.01,2013-02-13 19:47:00,
2013-02-13 14:52:00,41.8,30.5,29.72,ENE,63,3.0,8.0,64,0.00,,,0.00,VWS V14.01,2013-02-13 19:52:00,
2013-02-13 14:54:00,41.6,30.0,29.72,ENE,62,4.0,8.0,63,0.00,,,0.00,VWS V14.01,2013-02-13 19:54:00,
2013-02-13 14:56:00,41.6,30.0,29.72,NE,56,8.0,8.0,63,0.00,,,0.00,VWS V14.01,2013-02-13 19:56:00,
2013-02-13 14:59:00,41.3,29.7,29.72,ENE,57,8.0,8.0,63,0.00,,,0.00,VWS V14.01,2013-02-13 19:59:00,
2013-02-13 15:02:00,41.2,30.0,29.72,ENE,65,1.0,8.0,64,0.00,,,0.00,VWS V14.01,2013-02-13 20:02:00,
2013-02-13 15:03:00,41.2,30.0,29.71,East,82,2.0,8.0,64,0.00,,,0.00,VWS V14.01,2013-02-13 20:03:00,
2013-02-13 15:04:00,41.1,29.9,29.71,ENE,78,4.0,4.0,64,0.00,,,0.00,VWS V14.01,2013-02-13 20:04:00,
2013-02-13 15:09:00,40.8,29.6,29.71,ENE,69,2.0,6.0,64,0.00,,,0.00,VWS V14.01,2013-02-13 20:09:00,
2013-02-13 15:11:00,40.6,29.8,29.71,ENE,63,6.0,7.0,65,0.00,,,0.00,VWS V14.01,2013-02-13 20:11:00,
2013-02-13 15:15:00,40.5,29.7,29.71,ENE,59,6.0,8.0,65,0.00,,,0.00,VWS V14.01,2013-02-13 20:15:00,
2013-02-13 15:16:00,40.5,29.7,29.71,NE,55,5.0,8.0,65,0.00,,,0.00,VWS V14.01,2013-02-13 20:16:00,
2013-02-13 15:20:00,40.2,29.8,29.70,ENE,78,5.0,8.0,66,0.00,,,0.00,VWS V14.01,2013-02-13 20:20:00,
2013-02-13 15:21:00,40.2,29.8,29.70,East,81,4.0,8.0,66,0.00,,,0.00,VWS V14.01,2013-02-13 20:21:00,
2013-02-13 15:22:00,40.2,29.8,29.70,East,80,10.0,10.0,66,0.00,,,0.00,VWS V14.01,2013-02-13 20:22:00,
2013-02-13 15:24:00,40.2,29.8,29.70,NE,54,6.0,10.0,66,0.00,,,0.00,VWS V14.01,2013-02-13 20:24:00,
2013-02-13 15:26:00,40.3,29.9,29.70,NE,49,6.0,11.0,66,0.00,,,0.00,VWS V14.01,2013-02-13 20:26:00,
2013-02-13 15:27:00,40.3,29.9,29.70,ENE,61,8.0,11.0,66,0.00,,,0.00,VWS V14.01,2013-02-13 20:27:00,
2013-02-13 15:28:00,40.3,29.9,29.70,ENE,57,7.0,11.0,66,0.00,,,0.00,VWS V14.01,2013-02-13 20:28:00,
2013-02-13 15:33:00,40.3,29.9,29.70,ENE,63,0.0,11.0,66,0.00,,,0.00,VWS V14.01,2013-02-13 20:33:00,
2013-02-13 15:35:00,40.2,29.8,29.70,ENE,66,3.0,6.0,66,0.00,,,0.00,VWS V14.01,2013-02-13 20:35:00,
2013-02-13 15:37:00,40.2,29.8,29.70,NE,54,7.0,8.0,66,0.00,,,0.00,VWS V14.01,2013-02-13 20:37:00,
2013-02-13 15:41:00,40.1,29.7,29.70,ENE,61,0.0,8.0,66,0.00,,,0.00,VWS V14.01,2013-02-13 20:41:00,
2013-02-13 15:43:00,40.1,29.7,29.70,NE,51,5.0,10.0,66,0.00,,,0.00,VWS V14.01,2013-02-13 20:43:00,
2013-02-13 15:45:00,40.1,30.0,29.70,ENE,78,2.0,10.0,67,0.00,,,0.00,VWS V14.01,2013-02-13 20:45:00,
2013-02-13 15:46:00,40.1,30.0,29.70,ENE,60,4.0,10.0,67,0.00,,,0.00,VWS V14.01,2013-02-13 20:46:00,
2013-02-13 15:47:00,40.1,29.7,29.70,East,88,4.0,10.0,66,0.00,,,0.00,VWS V14.01,2013-02-13 20:47:00,
2013-02-13 15:49:00,40.1,30.0,29.69,East,101,1.0,10.0,67,0.00,,,0.00,VWS V14.01,2013-02-13 20:49:00,
2013-02-13 15:51:00,40.1,30.0,29.69,ENE,58,3.0,10.0,67,0.00,,,0.00,VWS V14.01,2013-02-13 20:51:00,
2013-02-13 15:54:00,40.1,29.7,29.69,ENE,63,4.0,10.0,66,0.00,,,0.00,VWS V14.01,2013-02-13 20:54:00,
2013-02-13 15:56:00,39.9,29.9,29.69,East,82,2.0,10.0,67,0.00,,,0.00,VWS V14.01,2013-02-13 20:56:00,
2013-02-13 15:57:00,39.9,29.9,29.69,ENE,66,3.0,10.0,67,0.00,,,0.00,VWS V14.01,2013-02-13 20:57:00,
2013-02-13 15:59:00,39.9,29.9,29.69,East,83,3.0,10.0,67,0.00,,,0.00,VWS V14.01,2013-02-13 20:59:00,
2013-02-13 16:02:00,39.8,29.8,29.69,ENE,74,6.0,10.0,67,0.00,,,0.00,VWS V14.01,2013-02-13 21:02:00,
2013-02-13 16:03:00,39.8,29.8,29.67,ENE,74,6.0,10.0,67,0.00,,,0.00,VWS V14.01,2013-02-13 21:03:00,
2013-02-13 16:04:00,39.6,29.6,29.67,ENE,78,4.0,8.0,67,0.00,,,0.00,VWS V14.01,2013-02-13 21:04:00,
2013-02-13 16:08:00,39.6,29.6,29.67,ENE,69,0.0,8.0,67,0.00,,,0.00,VWS V14.01,2013-02-13 21:08:00,
2013-02-13 16:09:00,39.6,29.6,29.67,ENE,69,0.0,8.0,67,0.00,,,0.00,VWS V14.01,2013-02-13 21:09:00,
2013-02-13 16:11:00,39.5,29.5,29.67,ENE,61,10.0,10.0,67,0.00,,,0.00,VWS V14.01,2013-02-13 21:11:00,
2013-02-13 16:14:00,39.5,29.8,29.67,ENE,61,6.0,11.0,68,0.00,,,0.00,VWS V14.01,2013-02-13 21:14:00,
2013-02-13 16:16:00,39.5,29.8,29.67,NE,55,6.0,11.0,68,0.00,,,0.00,VWS V14.01,2013-02-13 21:16:00,
2013-02-13 16:19:00,39.3,29.6,29.67,ENE,61,10.0,11.0,68,0.00,,,0.00,VWS V14.01,2013-02-13 21:19:00,
2013-02-13 16:20:00,39.3,29.6,29.67,NE,55,8.0,11.0,68,0.00,,,0.00,VWS V14.01,2013-02-13 21:20:00,
2013-02-13 16:25:00,39.3,29.6,29.67,ENE,65,6.0,11.0,68,0.00,,,0.00,VWS V14.01,2013-02-13 21:25:00,
2013-02-13 16:26:00,39.3,29.6,29.67,ENE,71,5.0,11.0,68,0.00,,,0.00,VWS V14.01,2013-02-13 21:26:00,
2013-02-13 16:27:00,39.3,29.6,29.67,ENE,71,4.0,11.0,68,0.00,,,0.00,VWS V14.01,2013-02-13 21:27:00,
2013-02-13 16:28:00,39.3,29.6,29.67,East,86,3.0,11.0,68,0.00,,,0.00,VWS V14.01,2013-02-13 21:28:00,
2013-02-13 16:33:00,39.3,29.6,29.66,ENE,69,5.0,11.0,68,0.00,,,0.00,VWS V14.01,2013-02-13 21:33:00,
2013-02-13 16:35:00,39.2,29.5,29.66,ENE,61,5.0,7.0,68,0.00,,,0.00,VWS V14.01,2013-02-13 21:35:00,
2013-02-13 16:38:00,39.2,29.5,29.66,ENE,75,7.0,8.0,68,0.00,,,0.00,VWS V14.01,2013-02-13 21:38:00,
2013-02-13 16:40:00,39.1,29.5,29.66,East,88,2.0,8.0,68,0.00,,,0.00,VWS V14.01,2013-02-13 21:40:00,
2013-02-13 16:41:00,39.1,29.5,29.66,ENE,61,4.0,8.0,68,0.00,,,0.00,VWS V14.01,2013-02-13 21:41:00,
2013-02-13 16:46:00,39.1,29.5,29.66,ENE,69,6.0,10.0,68,0.00,,,0.00,VWS V14.01,2013-02-13 21:46:00,
2013-02-13 16:47:00,39.1,29.5,29.66,NE,52,3.0,10.0,68,0.00,,,0.00,VWS V14.01,2013-02-13 21:47:00,
2013-02-13 16:48:00,39.1,29.5,29.65,East,79,6.0,10.0,68,0.00,,,0.00,VWS V14.01,2013-02-13 21:48:00,
2013-02-13 16:52:00,39.1,29.8,29.65,ENE,69,4.0,10.0,69,0.00,,,0.00,VWS V14.01,2013-02-13 21:52:00,
2013-02-13 16:53:00,39.1,29.8,29.65,ENE,63,5.0,10.0,69,0.00,,,0.00,VWS V14.01,2013-02-13 21:53:00,
2013-02-13 16:55:00,39.1,29.8,29.65,East,82,6.0,10.0,69,0.00,,,0.00,VWS V14.01,2013-02-13 21:55:00,
2013-02-13 16:59:00,39.1,29.8,29.65,East,85,1.0,10.0,69,0.00,,,0.00,VWS V14.01,2013-02-13 21:59:00,
2013-02-13 17:00:00,39.1,29.8,29.65,East,79,4.0,10.0,69,0.00,,,0.00,VWS V14.01,2013-02-13 22:00:00,
2013-02-13 17:03:00,39.1,29.8,29.64,ENE,65,0.0,10.0,69,0.00,,,0.00,VWS V14.01,2013-02-13 22:03:00,
2013-02-13 17:04:00,39.1,29.8,29.64,ENE,67,3.0,3.0,69,0.00,,,0.00,VWS V14.01,2013-02-13 22:04:00,
2013-02-13 17:09:00,38.9,29.6,29.64,ENE,62,3.0,10.0,69,0.00,,,0.00,VWS V14.01,2013-02-13 22:09:00,
2013-02-13 17:10:00,38.9,29.6,29.64,NE,56,6.0,10.0,69,0.00,,,0.00,VWS V14.01,2013-02-13 22:10:00,
2013-02-13 17:12:00,38.9,29.6,29.64,ENE,57,2.0,10.0,69,0.00,,,0.00,VWS V14.01,2013-02-13 22:12:00,
2013-02-13 17:14:00,38.9,29.6,29.64,ENE,64,4.0,10.0,69,0.00,,,0.00,VWS V14.01,2013-02-13 22:14:00,
2013-02-13 17:17:00,38.8,29.5,29.64,ENE,61,6.0,10.0,69,0.00,,,0.00,VWS V14.01,2013-02-13 22:17:00,
2013-02-13 17:18:00,38.8,29.5,29.64,ENE,64,6.0,10.0,69,0.00,,,0.00,VWS V14.01,2013-02-13 22:18:00,
2013-02-13 17:23:00,38.9,29.6,29.64,ENE,59,5.0,10.0,69,0.00,,,0.00,VWS V14.01,2013-02-13 22:23:00,
2013-02-13 17:25:00,38.9,29.6,29.64,ENE,61,4.0,10.0,69,0.00,,,0.00,VWS V14.01,2013-02-13 22:25:00,
2013-02-13 17:29:00,38.8,29.5,29.64,NE,55,6.0,10.0,69,0.00,,,0.00,VWS V14.01,2013-02-13 22:29:00,
2013-02-13 17:31:00,38.8,29.5,29.64,ENE,71,5.0,10.0,69,0.00,,,0.00,VWS V14.01,2013-02-13 22:31:00,
2013-02-13 17:33:00,38.8,29.5,29.64,ENE,74,5.0,10.0,69,0.00,,,0.00,VWS V14.01,2013-02-13 22:33:00,
2013-02-13 17:34:00,38.8,29.5,29.64,ENE,75,4.0,7.0,69,0.00,,,0.00,VWS V14.01,2013-02-13 22:34:00,
2013-02-13 17:37:00,38.8,29.5,29.64,ENE,75,3.0,7.0,69,0.00,,,0.00,VWS V14.01,2013-02-13 22:37:00,
2013-02-13 17:39:00,38.8,29.5,29.64,ENE,76,5.0,7.0,69,0.00,,,0.00,VWS V14.01,2013-02-13 22:39:00,
2013-02-13 17:43:00,38.9,29.6,29.64,ESE,104,1.0,7.0,69,0.00,,,0.00,VWS V14.01,2013-02-13 22:43:00,
2013-02-13 17:44:00,38.9,29.6,29.64,ESE,106,6.0,7.0,69,0.00,,,0.00,VWS V14.01,2013-02-13 22:44:00,
2013-02-13 17:46:00,38.9,29.6,29.64,ESE,108,0.0,7.0,69,0.00,,,0.00,VWS V14.01,2013-02-13 22:46:00,
2013-02-13 17:48:00,38.9,29.6,29.65,East,95,6.0,7.0,69,0.00,,,0.00,VWS V14.01,2013-02-13 22:48:00,
2013-02-13 17:53:00,39.1,29.8,29.65,ESE,119,7.0,8.0,69,0.00,,,0.00,VWS V14.01,2013-02-13 22:53:00,
2013-02-13 17:55:00,39.1,29.8,29.65,SE,128,6.0,8.0,69,0.00,,,0.00,VWS V14.01,2013-02-13 22:55:00,
2013-02-13 17:58:00,39.1,29.5,29.65,ESE,113,6.0,8.0,68,0.00,,,0.00,VWS V14.01,2013-02-13 22:58:00,
2013-02-13 17:59:00,39.1,29.5,29.65,ESE,107,6.0,8.0,68,0.00,,,0.00,VWS V14.01,2013-02-13 22:59:00,
2013-02-13 18:00:00,39.1,29.5,29.65,ESE,113,4.0,8.0,68,0.00,,,0.00,VWS V14.01,2013-02-13 23:00:00,
2013-02-13 18:03:00,39.1,29.5,29.64,ESE,103,5.0,8.0,68,0.00,,,0.00,VWS V14.01,2013-02-13 23:03:00,
2013-02-13 18:04:00,39.1,29.5,29.64,ESE,103,0.0,6.0,68,0.00,,,0.00,VWS V14.01,2013-02-13 23:04:00,
2013-02-13 18:07:00,39.1,29.5,29.64,East,80,2.0,7.0,68,0.00,,,0.00,VWS V14.01,2013-02-13 23:07:00,
2013-02-13 18:08:00,39.1,29.5,29.64,East,82,4.0,7.0,68,0.00,,,0.00,VWS V14.01,2013-02-13 23:08:00,
2013-02-13 18:12:00,39.1,29.8,29.64,ENE,68,3.0,7.0,69,0.00,,,0.00,VWS V14.01,2013-02-13 23:12:00,
2013-02-13 18:14:00,39.1,29.8,29.64,ENE,76,0.0,7.0,69,0.00,,,0.00,VWS V14.01,2013-02-13 23:14:00,
2013-02-13 18:15:00,39.1,29.8,29.64,ENE,76,2.0,7.0,69,0.00,,,0.00,VWS V14.01,2013-02-13 23:15:00,
2013-02-13 18:16:00,39.1,29.8,29.64,ENE,75,4.0,7.0,69,0.00,,,0.00,VWS V14.01,2013-02-13 23:16:00,
2013-02-13 18:21:00,39.1,29.8,29.64,ENE,78,0.0,7.0,69,0.00,,,0.00,VWS V14.01,2013-02-13 23:21:00,
2013-02-13 18:22:00,39.1,29.8,29.64,ENE,78,0.0,7.0,69,0.00,,,0.00,VWS V14.01,2013-02-13 23:22:00,
2013-02-13 18:26:00,39.1,29.8,29.64,East,92,2.0,7.0,69,0.00,,,0.00,VWS V14.01,2013-02-13 23:26:00,
2013-02-13 18:27:00,39.1,29.8,29.64,East,86,4.0,7.0,69,0.00,,,0.00,VWS V14.01,2013-02-13 23:27:00,
2013-02-13 18:31:00,39.1,29.8,29.64,East,85,2.0,7.0,69,0.00,,,0.00,VWS V14.01,2013-02-13 23:31:00,
2013-02-13 18:33:00,39.1,29.8,29.64,ENE,78,2.0,7.0,69,0.00,,,0.00,VWS V14.01,2013-02-13 23:33:00,
2013-02-13 18:38:00,39.2,30.2,29.64,East,88,5.0,5.0,70,0.00,,,0.00,VWS V14.01,2013-02-13 23:38:00,
2013-02-13 18:40:00,39.2,30.2,29.64,ENE,76,5.0,5.0,70,0.00,,,0.00,VWS V14.01,2013-02-13 23:40:00,
2013-02-13 18:42:00,39.2,30.2,29.64,East,80,4.0,6.0,70,0.00,,,0.00,VWS V14.01,2013-02-13 23:42:00,
2013-02-13 18:43:00,39.2,30.2,29.64,ENE,77,5.0,6.0,70,0.00,,,0.00,VWS V14.01,2013-02-13 23:43:00,
2013-02-13 18:47:00,39.1,30.2,29.63,ENE,57,1.0,8.0,70,0.00,,,0.00,VWS V14.01,2013-02-13 23:47:00,
2013-02-13 18:48:00,39.2,30.2,29.63,ENE,57,4.0,8.0,70,0.00,,,0.00,VWS V14.01,2013-02-13 23:48:00,
2013-02-13 18:53:00,39.1,30.2,29.63,ENE,66,7.0,10.0,70,0.00,,,0.00,VWS V14.01,2013-02-13 23:53:00,
2013-02-13 18:54:00,39.1,30.2,29.63,ENE,69,7.0,11.0,70,0.00,,,0.00,VWS V14.01,2013-02-13 23:54:00,
2013-02-13 18:59:00,39.1,30.2,29.63,ENE,65,3.0,12.0,70,0.00,,,0.00,VWS V14.01,2013-02-13 23:59:00,
2013-02-13 19:00:00,39.1,30.2,29.63,NE,56,3.0,12.0,70,0.00,,,0.00,VWS V14.01,2013-02-14 00:00:00,
2013-02-13 19:05:00,39.1,29.8,29.63,East,79,7.0,11.0,69,0.00,,,0.00,VWS V14.01,2013-02-14 00:05:00,
2013-02-13 19:06:00,39.1,29.8,29.63,ENE,61,4.0,11.0,69,0.00,,,0.00,VWS V14.01,2013-02-14 00:06:00,
2013-02-13 19:08:00,39.2,29.9,29.63,ENE,74,8.0,11.0,69,0.00,,,0.00,VWS V14.01,2013-02-14 00:08:00,
2013-02-13 19:11:00,39.2,30.2,29.63,ENE,71,8.0,11.0,70,0.00,,,0.00,VWS V14.01,2013-02-14 00:11:00,
2013-02-13 19:13:00,39.2,30.2,29.63,NE,55,4.0,11.0,70,0.00,,,0.00,VWS V14.01,2013-02-14 00:13:00,
2013-02-13 19:16:00,39.2,30.2,29.63,ENE,57,7.0,12.0,70,0.00,,,0.00,VWS V14.01,2013-02-14 00:16:00,
2013-02-13 19:18:00,39.2,30.2,29.62,East,86,7.0,12.0,70,0.00,,,0.00,VWS V14.01,2013-02-14 00:18:00,
2013-02-13 19:23:00,39.1,30.5,29.62,ENE,72,6.0,12.0,71,0.00,,,0.00,VWS V14.01,2013-02-14 00:23:00,
2013-02-13 19:25:00,39.1,30.5,29.62,NNE,32,5.0,12.0,71,0.00,,,0.00,VWS V14.01,2013-02-14 00:25:00,
2013-02-13 19:26:00,39.1,30.5,29.62,NE,46,3.0,12.0,71,0.00,,,0.00,VWS V14.01,2013-02-14 00:26:00,
2013-02-13 19:31:00,38.9,30.3,29.62,ENE,59,4.0,12.0,71,0.00,,,0.00,VWS V14.01,2013-02-14 00:31:00,
2013-02-13 19:32:00,38.9,30.3,29.62,NE,49,5.0,12.0,71,0.00,,,0.00,VWS V14.01,2013-02-14 00:32:00,
2013-02-13 19:33:00,38.9,30.3,29.63,NNE,30,5.0,12.0,71,0.00,,,0.00,VWS V14.01,2013-02-14 00:33:00,
2013-02-13 19:39:00,38.8,30.2,29.63,ENE,64,8.0,11.0,71,0.00,,,0.00,VWS V14.01,2013-02-14 00:39:00,
2013-02-13 19:41:00,38.5,29.9,29.63,NE,52,3.0,11.0,71,0.00,,,0.00,VWS V14.01,2013-02-14 00:41:00,
2013-02-13 19:46:00,38.2,30.0,29.63,East,84,11.0,12.0,72,0.00,,,0.00,VWS V14.01,2013-02-14 00:46:00,
2013-02-13 19:47:00,38.2,30.0,29.63,ENE,69,5.0,12.0,72,0.00,,,0.00,VWS V14.01,2013-02-14 00:47:00,
2013-02-13 19:50:00,37.9,29.7,29.64,East,86,5.0,12.0,72,0.01,,,0.01,VWS V14.01,2013-02-14 00:50:00,
2013-02-13 19:55:00,37.3,30.1,29.64,East,83,6.0,14.0,75,0.01,,,0.01,VWS V14.01,2013-02-14 00:55:00,
2013-02-13 20:00:00,36.9,30.7,29.64,East,81,5.0,14.0,78,0.01,,,0.01,VWS V14.01,2013-02-14 01:00:00,
2013-02-13 20:02:00,36.8,30.6,29.64,ENE,75,5.0,14.0,78,0.01,,,0.01,VWS V14.01,2013-02-14 01:02:00,
2013-02-13 20:03:00,36.6,30.7,29.64,ENE,66,8.0,14.0,79,0.01,,,0.01,VWS V14.01,2013-02-14 01:03:00,
2013-02-13 20:06:00,36.5,30.9,29.64,ENE,62,5.0,10.0,80,0.02,,,0.02,VWS V14.01,2013-02-14 01:06:00,
2013-02-13 20:07:00,36.3,30.7,29.64,ENE,76,2.0,10.0,80,0.02,,,0.02,VWS V14.01,2013-02-14 01:07:00,
2013-02-13 20:09:00,36.2,30.9,29.64,ENE,77,6.0,10.0,81,0.02,,,0.02,VWS V14.01,2013-02-14 01:09:00,
2013-02-13 20:12:00,36.0,31.0,29.64,ENE,71,8.0,10.0,82,0.02,,,0.02,VWS V14.01,2013-02-14 01:12:00,
2013-02-13 20:14:00,36.0,31.4,29.64,ENE,61,4.0,10.0,83,0.02,,,0.02,VWS V14.01,2013-02-14 01:14:00,
2013-02-13 20:16:00,35.9,31.2,29.64,ENE,68,6.0,10.0,83,0.03,,,0.03,VWS V14.01,2013-02-14 01:16:00,
2013-02-13 20:17:00,35.9,31.5,29.64,East,86,4.0,10.0,84,0.03,,,0.03,VWS V14.01,2013-02-14 01:17:00,
2013-02-13 20:22:00,35.8,31.7,29.64,ENE,68,5.0,10.0,85,0.03,,,0.03,VWS V14.01,2013-02-14 01:22:00,
2013-02-13 20:23:00,35.8,31.7,29.64,ENE,77,8.0,10.0,85,0.03,,,0.03,VWS V14.01,2013-02-14 01:23:00,
2013-02-13 20:25:00,35.8,31.7,29.64,ENE,76,6.0,10.0,85,0.03,,,0.03,VWS V14.01,2013-02-14 01:25:00,
2013-02-13 20:30:00,35.6,31.8,29.64,NE,55,4.0,10.0,86,0.03,,,0.03,VWS V14.01,2013-02-14 01:30:00,
2013-02-13 20:31:00,35.6,31.8,29.64,ENE,62,6.0,10.0,86,0.03,,,0.03,VWS V14.01,2013-02-14 01:31:00,
2013-02-13 20:32:00,35.6,32.1,29.64,NE,54,5.0,10.0,87,0.03,,,0.03,VWS V14.01,2013-02-14 01:32:00,
2013-02-13 20:35:00,35.5,32.0,29.64,ENE,59,3.0,6.0,87,0.04,,,0.04,VWS V14.01,2013-02-14 01:35:00,
2013-02-13 20:40:00,35.5,32.0,29.64,ENE,58,2.0,7.0,87,0.04,,,0.04,VWS V14.01,2013-02-14 01:40:00,
2013-02-13 20:44:00,35.5,32.3,29.64,ENE,65,7.0,7.0,88,0.04,,,0.04,VWS V14.01,2013-02-14 01:44:00,
2013-02-13 20:49:00,35.5,32.3,29.64,ENE,62,4.0,8.0,88,0.04,,,0.04,VWS V14.01,2013-02-14 01:49:00,
2013-02-13 20:51:00,35.5,32.3,29.64,NE,51,0.0,8.0,88,0.04,,,0.04,VWS V14.01,2013-02-14 01:51:00,
2013-02-13 20:52:00,35.5,32.3,29.64,NE,53,2.0,8.0,88,0.04,,,0.04,VWS V14.01,2013-02-14 01:52:00,
2013-02-13 20:54:00,35.5,32.3,29.64,NE,53,0.0,8.0,88,0.05,,,0.05,VWS V14.01,2013-02-14 01:54:00,
2013-02-13 20:55:00,35.5,32.6,29.64,NE,51,3.0,8.0,89,0.05,,,0.05,VWS V14.01,2013-02-14 01:55:00,
2013-02-13 20:58:00,35.5,32.6,29.64,NE,54,2.0,9.0,89,0.05,,,0.05,VWS V14.01,2013-02-14 01:58:00,
2013-02-13 20:59:00,35.5,32.6,29.64,NE,42,7.0,9.0,89,0.05,,,0.05,VWS V14.01,2013-02-14 01:59:00,
2013-02-13 21:02:00,35.5,32.6,29.64,ENE,65,6.0,9.0,89,0.05,,,0.05,VWS V14.01,2013-02-14 02:02:00,
2013-02-13 21:03:00,35.5,32.6,29.64,NE,51,3.0,3.0,89,0.04,,,0.05,VWS V14.01,2013-02-14 02:03:00,
2013-02-13 21:04:00,35.3,32.4,29.64,NE,45,5.0,5.0,89,0.04,,,0.05,VWS V14.01,2013-02-14 02:04:00,
2013-02-13 21:08:00,35.3,32.4,29.64,ENE,61,4.0,8.0,89,0.04,,,0.05,VWS V14.01,2013-02-14 02:08:00,
2013-02-13 21:09:00,35.3,32.4,29.64,NE,49,5.0,8.0,89,0.04,,,0.05,VWS V14.01,2013-02-14 02:09:00,
2013-02-13 21:13:00,35.3,32.7,29.64,NE,43,0.0,8.0,90,0.04,,,0.05,VWS V14.01,2013-02-14 02:13:00,
2013-02-13 21:14:00,35.2,32.6,29.64,NNE,19,2.0,8.0,90,0.04,,,0.05,VWS V14.01,2013-02-14 02:14:00,
2013-02-13 21:16:00,35.2,32.6,29.64,NNE,32,3.0,8.0,90,0.04,,,0.05,VWS V14.01,2013-02-14 02:16:00,
2013-02-13 21:19:00,35.0,32.4,29.63,NNE,30,5.0,8.0,90,0.04,,,0.05,VWS V14.01,2013-02-14 02:19:00,
2013-02-13 21:20:00,35.0,32.4,29.63,NNE,26,1.0,8.0,90,0.04,,,0.05,VWS V14.01,2013-02-14 02:20:00,
2013-02-13 21:24:00,34.9,32.3,29.63,NNE,29,4.0,8.0,90,0.05,,,0.06,VWS V14.01,2013-02-14 02:24:00,
2013-02-13 21:25:00,34.7,32.1,29.63,NNE,28,4.0,8.0,90,0.05,,,0.06,VWS V14.01,2013-02-14 02:25:00,
2013-02-13 21:29:00,34.6,32.0,29.63,NNE,21,4.0,8.0,90,0.05,,,0.06,VWS V14.01,2013-02-14 02:29:00,
2013-02-13 21:30:00,34.6,32.0,29.63,NNE,22,2.0,8.0,90,0.05,,,0.06,VWS V14.01,2013-02-14 02:30:00,
2013-02-13 21:31:00,34.6,32.0,29.63,NNE,22,3.0,8.0,90,0.05,,,0.06,VWS V14.01,2013-02-14 02:31:00,
2013-02-13 21:35:00,34.4,31.8,29.64,NNE,19,3.0,5.0,90,0.03,,,0.06,VWS V14.01,2013-02-14 02:35:00,
2013-02-13 21:36:00,34.4,31.8,29.64,NNE,17,5.0,6.0,90,0.03,,,0.06,VWS V14.01,2013-02-14 02:36:00,
2013-02-13 21:37:00,34.4,31.8,29.64,NNE,33,4.0,7.0,90,0.03,,,0.06,VWS V14.01,2013-02-14 02:37:00,
2013-02-13 21:41:00,34.3,31.7,29.64,NE,46,2.0,7.0,90,0.03,,,0.06,VWS V14.01,2013-02-14 02:41:00,
2013-02-13 21:42:00,34.1,31.5,29.64,NE,45,3.0,7.0,90,0.03,,,0.06,VWS V14.01,2013-02-14 02:42:00,
2013-02-13 21:46:00,34.1,31.8,29.64,NE,36,5.0,7.0,91,0.03,,,0.06,VWS V14.01,2013-02-14 02:46:00,
2013-02-13 21:47:00,34.1,31.8,29.64,NE,36,3.0,7.0,91,0.03,,,0.06,VWS V14.01,2013-02-14 02:47:00,
2013-02-13 21:48:00,34.0,31.6,29.64,NE,36,3.0,7.0,91,0.03,,,0.06,VWS V14.01,2013-02-14 02:48:00,
2013-02-13 21:49:00,34.0,31.6,29.64,NE,36,2.0,7.0,91,0.03,,,0.06,VWS V14.01,2013-02-14 02:49:00,
2013-02-13 21:53:00,34.0,31.6,29.64,NNE,31,3.0,7.0,91,0.03,,,0.06,VWS V14.01,2013-02-14 02:53:00,
2013-02-13 21:54:00,34.0,31.6,29.64,NNE,28,4.0,7.0,91,0.03,,,0.06,VWS V14.01,2013-02-14 02:54:00,
2013-02-13 21:56:00,34.0,31.6,29.64,NNE,25,2.0,7.0,91,0.03,,,0.06,VWS V14.01,2013-02-14 02:56:00,
2013-02-13 22:02:00,34.0,31.6,29.64,NE,34,3.0,7.0,91,0.03,,,0.06,VWS V14.01,2013-02-14 03:02:00,
2013-02-13 22:03:00,34.0,31.6,29.62,NNE,33,0.0,7.0,91,0.03,,,0.06,VWS V14.01,2013-02-14 03:03:00,
2013-02-13 22:07:00,33.8,31.5,29.62,NNE,28,0.0,5.0,91,0.01,,,0.06,VWS V14.01,2013-02-14 03:07:00,
2013-02-13 22:09:00,33.8,31.5,29.62,NNE,25,0.0,5.0,91,0.01,,,0.06,VWS V14.01,2013-02-14 03:09:00,
2013-02-13 22:10:00,33.8,31.5,29.62,NNE,23,1.0,5.0,91,0.01,,,0.06,VWS V14.01,2013-02-14 03:10:00,
2013-02-13 22:13:00,33.8,31.5,29.62,NNE,22,3.0,5.0,91,0.01,,,0.06,VWS V14.01,2013-02-14 03:13:00,
2013-02-13 22:16:00,33.8,31.5,29.62,NE,41,1.0,6.0,91,0.01,,,0.06,VWS V14.01,2013-02-14 03:16:00,
2013-02-13 22:17:00,33.8,31.5,29.62,NE,39,2.0,6.0,91,0.01,,,0.06,VWS V14.01,2013-02-14 03:17:00,
2013-02-13 22:18:00,33.7,31.4,29.62,NE,38,0.0,6.0,91,0.01,,,0.06,VWS V14.01,2013-02-14 03:18:00,
2013-02-13 22:22:00,33.7,31.6,29.62,NNE,31,6.0,6.0,92,0.01,,,0.06,VWS V14.01,2013-02-14 03:22:00,
2013-02-13 22:23:00,33.7,31.6,29.62,NNE,31,3.0,6.0,92,0.01,,,0.06,VWS V14.01,2013-02-14 03:23:00,
2013-02-13 22:27:00,33.7,31.6,29.62,NNE,17,4.0,7.0,92,0.01,,,0.06,VWS V14.01,2013-02-14 03:27:00,
2013-02-13 22:32:00,33.5,31.4,29.62,North,11,3.0,7.0,92,0.01,,,0.06,VWS V14.01,2013-02-14 03:32:00,
2013-02-13 22:33:00,33.5,31.4,29.62,North,11,5.0,7.0,92,0.01,,,0.06,VWS V14.01,2013-02-14 03:33:00,
2013-02-13 22:34:00,33.5,31.4,29.62,NNE,18,3.0,5.0,92,0.00,,,0.06,VWS V14.01,2013-02-14 03:34:00,
2013-02-13 22:39:00,33.7,31.6,29.62,North,10,6.0,7.0,92,0.00,,,0.06,VWS V14.01,2013-02-14 03:39:00,
2013-02-13 22:40:00,33.7,31.6,29.62,NNE,16,2.0,7.0,92,0.00,,,0.06,VWS V14.01,2013-02-14 03:40:00,
2013-02-13 22:45:00,33.5,31.4,29.62,North,5,4.0,7.0,92,0.01,,,0.07,VWS V14.01,2013-02-14 03:45:00,
2013-02-13 22:48:00,33.7,31.6,29.61,NNE,23,2.0,7.0,92,0.01,,,0.07,VWS V14.01,2013-02-14 03:48:00,
2013-02-13 22:50:00,33.5,31.4,29.61,NNE,19,3.0,7.0,92,0.01,,,0.07,VWS V14.01,2013-02-14 03:50:00,
2013-02-13 22:51:00,33.5,31.4,29.61,NNE,16,6.0,7.0,92,0.01,,,0.07,VWS V14.01,2013-02-14 03:51:00,
2013-02-13 22:55:00,33.7,31.6,29.61,NNE,18,2.0,7.0,92,0.01,,,0.07,VWS V14.01,2013-02-14 03:55:00,
2013-02-13 22:58:00,33.7,31.6,29.61,NNE,18,0.0,7.0,92,0.01,,,0.07,VWS V14.01,2013-02-14 03:58:00,
2013-02-13 23:00:00,33.5,31.4,29.61,NNE,17,3.0,7.0,92,0.01,,,0.07,VWS V14.01,2013-02-14 04:00:00,
2013-02-13 23:03:00,33.5,31.4,29.62,NE,47,4.0,7.0,92,0.01,,,0.07,VWS V14.01,2013-02-14 04:03:00,
2013-02-13 23:04:00,33.5,31.4,29.62,NNE,17,5.0,8.0,92,0.01,,,0.07,VWS V14.01,2013-02-14 04:04:00,
2013-02-13 23:09:00,33.5,31.4,29.62,North,11,2.0,8.0,92,0.01,,,0.07,VWS V14.01,2013-02-14 04:09:00,
2013-02-13 23:10:00,33.5,31.4,29.62,North,11,5.0,8.0,92,0.01,,,0.07,VWS V14.01,2013-02-14 04:10:00,
2013-02-13 23:13:00,33.5,31.4,29.62,NNE,17,0.0,8.0,92,0.01,,,0.07,VWS V14.01,2013-02-14 04:13:00,
2013-02-13 23:14:00,33.5,31.7,29.62,NNE,17,0.0,8.0,93,0.01,,,0.07,VWS V14.01,2013-02-14 04:14:00,
2013-02-13 23:17:00,33.4,31.6,29.62,NNE,17,0.0,8.0,93,0.01,,,0.07,VWS V14.01,2013-02-14 04:17:00,
2013-02-13 23:19:00,33.5,31.7,29.62,North,5,7.0,8.0,93,0.01,,,0.07,VWS V14.01,2013-02-14 04:19:00,
2013-02-13 23:23:00,33.5,31.7,29.62,North,360,0.0,8.0,93,0.01,,,0.07,VWS V14.01,2013-02-14 04:23:00,
2013-02-13 23:24:00,33.5,31.7,29.62,North,355,3.0,8.0,93,0.01,,,0.07,VWS V14.01,2013-02-14 04:24:00,
2013-02-13 23:26:00,33.5,31.7,29.62,North,11,7.0,8.0,93,0.01,,,0.07,VWS V14.01,2013-02-14 04:26:00,
2013-02-13 23:27:00,33.5,31.7,29.62,North,11,4.0,8.0,93,0.01,,,0.07,VWS V14.01,2013-02-14 04:27:00,
2013-02-13 23:32:00,33.7,31.9,29.62,North,360,4.0,8.0,93,0.01,,,0.07,VWS V14.01,2013-02-14 04:32:00,
2013-02-13 23:33:00,33.7,31.9,29.62,North,355,4.0,8.0,93,0.01,,,0.07,VWS V14.01,2013-02-14 04:33:00,
2013-02-13 23:35:00,33.7,31.9,29.62,North,355,0.0,5.0,93,0.01,,,0.07,VWS V14.01,2013-02-14 04:35:00,
2013-02-13 23:36:00,33.7,31.9,29.62,North,360,3.0,6.0,93,0.01,,,0.07,VWS V14.01,2013-02-14 04:36:00,
2013-02-13 23:39:00,33.7,31.9,29.62,NNW,329,4.0,6.0,93,0.01,,,0.07,VWS V14.01,2013-02-14 04:39:00,
2013-02-13 23:40:00,33.7,31.9,29.62,NNW,343,5.0,6.0,93,0.01,,,0.07,VWS V14.01,2013-02-14 04:40:00,
2013-02-13 23:44:00,33.7,31.9,29.62,NNW,327,6.0,7.0,93,0.01,,,0.07,VWS V14.01,2013-02-14 04:44:00,
2013-02-13 23:45:00,33.7,31.9,29.62,NNW,331,6.0,7.0,93,0.01,,,0.07,VWS V14.01,2013-02-14 04:45:00,
2013-02-13 23:47:00,33.7,31.9,29.62,NNW,331,5.0,7.0,93,0.01,,,0.07,VWS V14.01,2013-02-14 04:47:00,
2013-02-13 23:48:00,33.7,31.9,29.62,NW,326,7.0,7.0,93,0.01,,,0.07,VWS V14.01,2013-02-14 04:48:00,
2013-02-13 23:53:00,33.7,31.9,29.62,NW,325,5.0,7.0,93,0.01,,,0.07,VWS V14.01,2013-02-14 04:53:00,
2013-02-13 23:56:00,33.7,31.9,29.62,NNW,341,8.0,8.0,93,0.01,,,0.07,VWS V14.01,2013-02-14 04:56:00,
2013-02-13 23:57:00,33.7,31.9,29.62,NNW,329,5.0,9.0,93,0.01,,,0.07,VWS V14.01,2013-02-14 04:57:00,
2013-02-13 23:59:00,33.7,31.9,29.62,NNW,340,7.0,9.0,93,0.01,,,0.07,VWS V14.01,2013-02-14 04:59:00,